Multibeam Report for MV1306


Ship Name: Melville
Chief Scientist: Mecking, Sabine
University of Washington
Source Organization: UNOLS R2R
Start Date: 2013-05-08
End Date: 2013-06-01


View ISO Metadata

Visit the full NCEI Bathymetry Viewer


Multibeam Bathymetry

Cruise Details

Project: CLIVAR
Instrument: Kongsberg EM122

Data Quality

Number of Files: 1138
Number of Records: 253392
BATHYMETRY DATA Quantity Percentage
Number of Beams 109465344 100%
Number of Good Beams 97610387 89.17%
Number of Zero Beams 6792 0.01%
Number of Flagged Beams 11848165 10.82%

Navigation Totals

Total Time: 560.8938 hours
Total Track Length: 6319.1286 km
Average Speed: 11.266 km/hr (6.0832 knots)

Cruise Bounds

Northern Extent: 32.643364
Southern Extent: 21.233236
Western Extent: -167.45766
Eastern Extent: -117.236435

Limits

Minimum Sonar Depth 1.6347 Maximum Sonar Depth 8.0633
Minimum Altitude 28.7656 Maximum Altitude 11318.9023
Minimum Depth 25.3331 Maximum Depth 11359.8877

File Information

Full Resolution Bathymetry as collected (raw): 1136

Files File Size Description
0000_20130508_213757_melville.all.mb58.gz 59.48MB Kongsberg multibeam vendor format
0001_20130508_220757_melville.all.mb58.gz 45.62MB Kongsberg multibeam vendor format
0002_20130508_223801_melville.all.mb58.gz 39.72MB Kongsberg multibeam vendor format
0003_20130508_230802_melville.all.mb58.gz 38.33MB Kongsberg multibeam vendor format
0004_20130508_233757_melville.all.mb58.gz 36.26MB Kongsberg multibeam vendor format
0005_20130509_000801_melville.all.mb58.gz 35.05MB Kongsberg multibeam vendor format
0006_20130509_003804_melville.all.mb58.gz 48.54MB Kongsberg multibeam vendor format
0007_20130509_010759_melville.all.mb58.gz 50.74MB Kongsberg multibeam vendor format
0008_20130509_013800_melville.all.mb58.gz 50.97MB Kongsberg multibeam vendor format
0009_20130509_020759_melville.all.mb58.gz 50.01MB Kongsberg multibeam vendor format
0010_20130509_023802_melville.all.mb58.gz 33.58MB Kongsberg multibeam vendor format
0011_20130509_030759_melville.all.mb58.gz 28.38MB Kongsberg multibeam vendor format
0012_20130509_033801_melville.all.mb58.gz 28.72MB Kongsberg multibeam vendor format
0013_20130509_040759_melville.all.mb58.gz 29.89MB Kongsberg multibeam vendor format
0014_20130509_043803_melville.all.mb58.gz 31.89MB Kongsberg multibeam vendor format
0015_20130509_050800_melville.all.mb58.gz 37.27MB Kongsberg multibeam vendor format
0016_20130509_053801_melville.all.mb58.gz 29.45MB Kongsberg multibeam vendor format
0017_20130509_060806_melville.all.mb58.gz 29.56MB Kongsberg multibeam vendor format
0018_20130509_063803_melville.all.mb58.gz 28.05MB Kongsberg multibeam vendor format
0019_20130509_070756_melville.all.mb58.gz 27.85MB Kongsberg multibeam vendor format
0020_20130509_073806_melville.all.mb58.gz 27.25MB Kongsberg multibeam vendor format
0021_20130509_080801_melville.all.mb58.gz 26.97MB Kongsberg multibeam vendor format
0022_20130509_083807_melville.all.mb58.gz 26.37MB Kongsberg multibeam vendor format
0023_20130509_090755_melville.all.mb58.gz 26.96MB Kongsberg multibeam vendor format
0024_20130509_093753_melville.all.mb58.gz 27.09MB Kongsberg multibeam vendor format
0025_20130509_100807_melville.all.mb58.gz 26.82MB Kongsberg multibeam vendor format
0026_20130509_103804_melville.all.mb58.gz 26.93MB Kongsberg multibeam vendor format
0027_20130509_110802_melville.all.mb58.gz 26.96MB Kongsberg multibeam vendor format
0028_20130509_113758_melville.all.mb58.gz 26.87MB Kongsberg multibeam vendor format
0029_20130509_120753_melville.all.mb58.gz 27.06MB Kongsberg multibeam vendor format
0030_20130509_123757_melville.all.mb58.gz 27.04MB Kongsberg multibeam vendor format
0031_20130509_130757_melville.all.mb58.gz 27.04MB Kongsberg multibeam vendor format
0032_20130509_133757_melville.all.mb58.gz 26.99MB Kongsberg multibeam vendor format
0033_20130509_140755_melville.all.mb58.gz 27.13MB Kongsberg multibeam vendor format
0034_20130509_143808_melville.all.mb58.gz 26.66MB Kongsberg multibeam vendor format
0035_20130509_150804_melville.all.mb58.gz 26.68MB Kongsberg multibeam vendor format
0036_20130509_153802_melville.all.mb58.gz 26.52MB Kongsberg multibeam vendor format
0037_20130509_160810_melville.all.mb58.gz 26.29MB Kongsberg multibeam vendor format
0038_20130509_163802_melville.all.mb58.gz 26.29MB Kongsberg multibeam vendor format
0039_20130509_170753_melville.all.mb58.gz 26.36MB Kongsberg multibeam vendor format
0040_20130509_173757_melville.all.mb58.gz 26.40MB Kongsberg multibeam vendor format
0041_20130509_180805_melville.all.mb58.gz 26.56MB Kongsberg multibeam vendor format
0042_20130509_183805_melville.all.mb58.gz 26.15MB Kongsberg multibeam vendor format
0043_20130509_190752_melville.all.mb58.gz 25.97MB Kongsberg multibeam vendor format
0044_20130509_193805_melville.all.mb58.gz 25.71MB Kongsberg multibeam vendor format
0045_20130509_200800_melville.all.mb58.gz 25.69MB Kongsberg multibeam vendor format
0046_20130509_203750_melville.all.mb58.gz 26.65MB Kongsberg multibeam vendor format
0047_20130509_210804_melville.all.mb58.gz 26.52MB Kongsberg multibeam vendor format
0048_20130509_213752_melville.all.mb58.gz 26.79MB Kongsberg multibeam vendor format
0049_20130509_220800_melville.all.mb58.gz 26.56MB Kongsberg multibeam vendor format
0050_20130509_223755_melville.all.mb58.gz 26.86MB Kongsberg multibeam vendor format
0051_20130509_230801_melville.all.mb58.gz 26.75MB Kongsberg multibeam vendor format
0052_20130509_233757_melville.all.mb58.gz 26.78MB Kongsberg multibeam vendor format
0053_20130510_000750_melville.all.mb58.gz 26.79MB Kongsberg multibeam vendor format
0054_20130510_003751_melville.all.mb58.gz 26.46MB Kongsberg multibeam vendor format
0055_20130510_010753_melville.all.mb58.gz 26.30MB Kongsberg multibeam vendor format
0056_20130510_013802_melville.all.mb58.gz 26.53MB Kongsberg multibeam vendor format
0057_20130510_020754_melville.all.mb58.gz 27.53MB Kongsberg multibeam vendor format
0058_20130510_023801_melville.all.mb58.gz 26.60MB Kongsberg multibeam vendor format
0059_20130510_030757_melville.all.mb58.gz 25.91MB Kongsberg multibeam vendor format
0060_20130510_033800_melville.all.mb58.gz 25.93MB Kongsberg multibeam vendor format
0061_20130510_040758_melville.all.mb58.gz 26.13MB Kongsberg multibeam vendor format
0062_20130510_043803_melville.all.mb58.gz 26.14MB Kongsberg multibeam vendor format
0063_20130510_050752_melville.all.mb58.gz 26.37MB Kongsberg multibeam vendor format
0064_20130510_053751_melville.all.mb58.gz 26.40MB Kongsberg multibeam vendor format
0065_20130510_060754_melville.all.mb58.gz 26.31MB Kongsberg multibeam vendor format
0066_20130510_063747_melville.all.mb58.gz 26.36MB Kongsberg multibeam vendor format
0067_20130510_070751_melville.all.mb58.gz 26.02MB Kongsberg multibeam vendor format
0068_20130510_073748_melville.all.mb58.gz 26.97MB Kongsberg multibeam vendor format
0069_20130510_080756_melville.all.mb58.gz 26.43MB Kongsberg multibeam vendor format
0070_20130510_083746_melville.all.mb58.gz 26.84MB Kongsberg multibeam vendor format
0071_20130510_090757_melville.all.mb58.gz 26.22MB Kongsberg multibeam vendor format
0072_20130510_093756_melville.all.mb58.gz 26.49MB Kongsberg multibeam vendor format
0073_20130510_100756_melville.all.mb58.gz 26.32MB Kongsberg multibeam vendor format
0074_20130510_103750_melville.all.mb58.gz 26.63MB Kongsberg multibeam vendor format
0075_20130510_110754_melville.all.mb58.gz 26.50MB Kongsberg multibeam vendor format
0076_20130510_113759_melville.all.mb58.gz 26.20MB Kongsberg multibeam vendor format
0077_20130510_120751_melville.all.mb58.gz 26.84MB Kongsberg multibeam vendor format
0078_20130510_123757_melville.all.mb58.gz 26.43MB Kongsberg multibeam vendor format
0079_20130510_130756_melville.all.mb58.gz 26.22MB Kongsberg multibeam vendor format
0080_20130510_133751_melville.all.mb58.gz 26.51MB Kongsberg multibeam vendor format
0081_20130510_140750_melville.all.mb58.gz 26.37MB Kongsberg multibeam vendor format
0082_20130510_143752_melville.all.mb58.gz 26.57MB Kongsberg multibeam vendor format
0083_20130510_150759_melville.all.mb58.gz 26.29MB Kongsberg multibeam vendor format
0084_20130510_153744_melville.all.mb58.gz 26.74MB Kongsberg multibeam vendor format
0085_20130510_160750_melville.all.mb58.gz 26.51MB Kongsberg multibeam vendor format
0086_20130510_163754_melville.all.mb58.gz 25.96MB Kongsberg multibeam vendor format
0087_20130510_170752_melville.all.mb58.gz 26.26MB Kongsberg multibeam vendor format
0088_20130510_173757_melville.all.mb58.gz 25.95MB Kongsberg multibeam vendor format
0089_20130510_180751_melville.all.mb58.gz 26.38MB Kongsberg multibeam vendor format
0090_20130510_183754_melville.all.mb58.gz 26.14MB Kongsberg multibeam vendor format
0091_20130510_190756_melville.all.mb58.gz 26.26MB Kongsberg multibeam vendor format
0092_20130510_193800_melville.all.mb58.gz 26.04MB Kongsberg multibeam vendor format
0093_20130510_200759_melville.all.mb58.gz 25.66MB Kongsberg multibeam vendor format
0094_20130510_203752_melville.all.mb58.gz 26.19MB Kongsberg multibeam vendor format
0095_20130510_210757_melville.all.mb58.gz 26.13MB Kongsberg multibeam vendor format
0096_20130510_213747_melville.all.mb58.gz 26.17MB Kongsberg multibeam vendor format
0097_20130510_220756_melville.all.mb58.gz 25.84MB Kongsberg multibeam vendor format
0098_20130510_223756_melville.all.mb58.gz 25.82MB Kongsberg multibeam vendor format
0099_20130510_230746_melville.all.mb58.gz 26.22MB Kongsberg multibeam vendor format
0100_20130510_233745_melville.all.mb58.gz 26.40MB Kongsberg multibeam vendor format
0101_20130511_000759_melville.all.mb58.gz 26.12MB Kongsberg multibeam vendor format
0102_20130511_003752_melville.all.mb58.gz 25.98MB Kongsberg multibeam vendor format
0103_20130511_010742_melville.all.mb58.gz 26.21MB Kongsberg multibeam vendor format
0104_20130511_013754_melville.all.mb58.gz 26.08MB Kongsberg multibeam vendor format
0105_20130511_020743_melville.all.mb58.gz 26.38MB Kongsberg multibeam vendor format
0106_20130511_023752_melville.all.mb58.gz 26.22MB Kongsberg multibeam vendor format
0107_20130511_030746_melville.all.mb58.gz 26.09MB Kongsberg multibeam vendor format
0108_20130511_033741_melville.all.mb58.gz 26.23MB Kongsberg multibeam vendor format
0109_20130511_040752_melville.all.mb58.gz 26.02MB Kongsberg multibeam vendor format
0110_20130511_043744_melville.all.mb58.gz 26.05MB Kongsberg multibeam vendor format
0111_20130511_050746_melville.all.mb58.gz 26.10MB Kongsberg multibeam vendor format
0112_20130511_053746_melville.all.mb58.gz 26.03MB Kongsberg multibeam vendor format
0113_20130511_060744_melville.all.mb58.gz 26.22MB Kongsberg multibeam vendor format
0114_20130511_063753_melville.all.mb58.gz 25.99MB Kongsberg multibeam vendor format
0115_20130511_070747_melville.all.mb58.gz 26.05MB Kongsberg multibeam vendor format
0116_20130511_073740_melville.all.mb58.gz 26.44MB Kongsberg multibeam vendor format
0117_20130511_080750_melville.all.mb58.gz 26.34MB Kongsberg multibeam vendor format
0118_20130511_083754_melville.all.mb58.gz 25.62MB Kongsberg multibeam vendor format
0119_20130511_090750_melville.all.mb58.gz 26.07MB Kongsberg multibeam vendor format
0120_20130511_093752_melville.all.mb58.gz 25.78MB Kongsberg multibeam vendor format
0121_20130511_100738_melville.all.mb58.gz 26.33MB Kongsberg multibeam vendor format
0122_20130511_103753_melville.all.mb58.gz 26.08MB Kongsberg multibeam vendor format
0123_20130511_110744_melville.all.mb58.gz 26.17MB Kongsberg multibeam vendor format
0124_20130511_113741_melville.all.mb58.gz 26.36MB Kongsberg multibeam vendor format
0125_20130511_120742_melville.all.mb58.gz 26.35MB Kongsberg multibeam vendor format
0126_20130511_123739_melville.all.mb58.gz 26.21MB Kongsberg multibeam vendor format
0127_20130511_130753_melville.all.mb58.gz 25.80MB Kongsberg multibeam vendor format
0128_20130511_133745_melville.all.mb58.gz 26.17MB Kongsberg multibeam vendor format
0129_20130511_140747_melville.all.mb58.gz 25.89MB Kongsberg multibeam vendor format
0130_20130511_143739_melville.all.mb58.gz 25.10MB Kongsberg multibeam vendor format
0131_20130511_150749_melville.all.mb58.gz 24.99MB Kongsberg multibeam vendor format
0132_20130511_153743_melville.all.mb58.gz 25.23MB Kongsberg multibeam vendor format
0133_20130511_160755_melville.all.mb58.gz 25.08MB Kongsberg multibeam vendor format
0134_20130511_163754_melville.all.mb58.gz 25.01MB Kongsberg multibeam vendor format
0135_20130511_170750_melville.all.mb58.gz 25.07MB Kongsberg multibeam vendor format
0136_20130511_173756_melville.all.mb58.gz 24.96MB Kongsberg multibeam vendor format
0137_20130511_180756_melville.all.mb58.gz 25.04MB Kongsberg multibeam vendor format
0138_20130511_183758_melville.all.mb58.gz 24.81MB Kongsberg multibeam vendor format
0139_20130511_190743_melville.all.mb58.gz 25.58MB Kongsberg multibeam vendor format
0140_20130511_193752_melville.all.mb58.gz 26.07MB Kongsberg multibeam vendor format
0141_20130511_200751_melville.all.mb58.gz 25.79MB Kongsberg multibeam vendor format
0142_20130511_203742_melville.all.mb58.gz 26.17MB Kongsberg multibeam vendor format
0143_20130511_210747_melville.all.mb58.gz 25.95MB Kongsberg multibeam vendor format
0144_20130511_213744_melville.all.mb58.gz 26.02MB Kongsberg multibeam vendor format
0145_20130511_220749_melville.all.mb58.gz 25.91MB Kongsberg multibeam vendor format
0146_20130511_223736_melville.all.mb58.gz 25.97MB Kongsberg multibeam vendor format
0147_20130511_230737_melville.all.mb58.gz 26.05MB Kongsberg multibeam vendor format
0148_20130511_233736_melville.all.mb58.gz 26.09MB Kongsberg multibeam vendor format
0149_20130512_000740_melville.all.mb58.gz 25.61MB Kongsberg multibeam vendor format
0150_20130512_003742_melville.all.mb58.gz 25.83MB Kongsberg multibeam vendor format
0151_20130512_010838_melville.all.mb58.gz 25.18MB Kongsberg multibeam vendor format
0152_20130512_013845_melville.all.mb58.gz 24.95MB Kongsberg multibeam vendor format
0153_20130512_020836_melville.all.mb58.gz 25.26MB Kongsberg multibeam vendor format
0154_20130512_023852_melville.all.mb58.gz 24.84MB Kongsberg multibeam vendor format
0155_20130512_030836_melville.all.mb58.gz 25.28MB Kongsberg multibeam vendor format
0156_20130512_033848_melville.all.mb58.gz 24.98MB Kongsberg multibeam vendor format
0157_20130512_040845_melville.all.mb58.gz 24.91MB Kongsberg multibeam vendor format
0158_20130512_043835_melville.all.mb58.gz 25.88MB Kongsberg multibeam vendor format
0159_20130512_050843_melville.all.mb58.gz 25.93MB Kongsberg multibeam vendor format
0160_20130512_053838_melville.all.mb58.gz 25.98MB Kongsberg multibeam vendor format
0161_20130512_060832_melville.all.mb58.gz 26.13MB Kongsberg multibeam vendor format
0162_20130512_063844_melville.all.mb58.gz 25.77MB Kongsberg multibeam vendor format
0163_20130512_070828_melville.all.mb58.gz 25.74MB Kongsberg multibeam vendor format
0164_20130512_073831_melville.all.mb58.gz 25.71MB Kongsberg multibeam vendor format
0165_20130512_080830_melville.all.mb58.gz 25.94MB Kongsberg multibeam vendor format
0166_20130512_083838_melville.all.mb58.gz 25.84MB Kongsberg multibeam vendor format
0167_20130512_090832_melville.all.mb58.gz 25.84MB Kongsberg multibeam vendor format
0168_20130512_093839_melville.all.mb58.gz 25.53MB Kongsberg multibeam vendor format
0169_20130512_100845_melville.all.mb58.gz 24.66MB Kongsberg multibeam vendor format
0170_20130512_103829_melville.all.mb58.gz 24.94MB Kongsberg multibeam vendor format
0171_20130512_110839_melville.all.mb58.gz 25.06MB Kongsberg multibeam vendor format
0172_20130512_113851_melville.all.mb58.gz 24.80MB Kongsberg multibeam vendor format
0173_20130512_120844_melville.all.mb58.gz 24.75MB Kongsberg multibeam vendor format
0174_20130512_123836_melville.all.mb58.gz 24.93MB Kongsberg multibeam vendor format
0175_20130512_130846_melville.all.mb58.gz 24.82MB Kongsberg multibeam vendor format
0176_20130512_133849_melville.all.mb58.gz 24.85MB Kongsberg multibeam vendor format
0177_20130512_140850_melville.all.mb58.gz 25.34MB Kongsberg multibeam vendor format
0178_20130512_143832_melville.all.mb58.gz 25.93MB Kongsberg multibeam vendor format
0179_20130512_150843_melville.all.mb58.gz 25.58MB Kongsberg multibeam vendor format
0180_20130512_153829_melville.all.mb58.gz 25.75MB Kongsberg multibeam vendor format
0181_20130512_160835_melville.all.mb58.gz 25.61MB Kongsberg multibeam vendor format
0182_20130512_163844_melville.all.mb58.gz 25.57MB Kongsberg multibeam vendor format
0183_20130512_170839_melville.all.mb58.gz 25.72MB Kongsberg multibeam vendor format
0184_20130512_173839_melville.all.mb58.gz 25.55MB Kongsberg multibeam vendor format
0185_20130512_180827_melville.all.mb58.gz 25.76MB Kongsberg multibeam vendor format
0186_20130512_183832_melville.all.mb58.gz 25.55MB Kongsberg multibeam vendor format
0187_20130512_190834_melville.all.mb58.gz 25.16MB Kongsberg multibeam vendor format
0188_20130512_193844_melville.all.mb58.gz 24.74MB Kongsberg multibeam vendor format
0189_20130512_200842_melville.all.mb58.gz 24.79MB Kongsberg multibeam vendor format
0190_20130512_203840_melville.all.mb58.gz 24.82MB Kongsberg multibeam vendor format
0191_20130512_210845_melville.all.mb58.gz 24.67MB Kongsberg multibeam vendor format
0192_20130512_213837_melville.all.mb58.gz 24.66MB Kongsberg multibeam vendor format
0193_20130512_220825_melville.all.mb58.gz 24.99MB Kongsberg multibeam vendor format
0194_20130512_223842_melville.all.mb58.gz 24.57MB Kongsberg multibeam vendor format
0195_20130512_230833_melville.all.mb58.gz 24.86MB Kongsberg multibeam vendor format
0196_20130512_233841_melville.all.mb58.gz 25.25MB Kongsberg multibeam vendor format
0197_20130513_000838_melville.all.mb58.gz 25.69MB Kongsberg multibeam vendor format
0198_20130513_003834_melville.all.mb58.gz 25.41MB Kongsberg multibeam vendor format
0199_20130513_010824_melville.all.mb58.gz 25.77MB Kongsberg multibeam vendor format
0200_20130513_013834_melville.all.mb58.gz 25.50MB Kongsberg multibeam vendor format
0201_20130513_020826_melville.all.mb58.gz 25.98MB Kongsberg multibeam vendor format
0202_20130513_023840_melville.all.mb58.gz 25.67MB Kongsberg multibeam vendor format
0203_20130513_030825_melville.all.mb58.gz 25.92MB Kongsberg multibeam vendor format
0204_20130513_033828_melville.all.mb58.gz 25.92MB Kongsberg multibeam vendor format
0205_20130513_040842_melville.all.mb58.gz 25.26MB Kongsberg multibeam vendor format
0206_20130513_043839_melville.all.mb58.gz 24.60MB Kongsberg multibeam vendor format
0207_20130513_050828_melville.all.mb58.gz 24.92MB Kongsberg multibeam vendor format
0208_20130513_053839_melville.all.mb58.gz 24.61MB Kongsberg multibeam vendor format
0209_20130513_060823_melville.all.mb58.gz 25.05MB Kongsberg multibeam vendor format
0210_20130513_063843_melville.all.mb58.gz 24.65MB Kongsberg multibeam vendor format
0211_20130513_070836_melville.all.mb58.gz 24.57MB Kongsberg multibeam vendor format
0212_20130513_073825_melville.all.mb58.gz 24.92MB Kongsberg multibeam vendor format
0213_20130513_080840_melville.all.mb58.gz 24.78MB Kongsberg multibeam vendor format
0214_20130513_083847_melville.all.mb58.gz 25.37MB Kongsberg multibeam vendor format
0215_20130513_090839_melville.all.mb58.gz 25.79MB Kongsberg multibeam vendor format
0216_20130513_093838_melville.all.mb58.gz 25.73MB Kongsberg multibeam vendor format
0217_20130513_100833_melville.all.mb58.gz 25.62MB Kongsberg multibeam vendor format
0218_20130513_103830_melville.all.mb58.gz 25.90MB Kongsberg multibeam vendor format
0219_20130513_110833_melville.all.mb58.gz 25.58MB Kongsberg multibeam vendor format
0220_20130513_113836_melville.all.mb58.gz 25.26MB Kongsberg multibeam vendor format
0221_20130513_120826_melville.all.mb58.gz 25.59MB Kongsberg multibeam vendor format
0222_20130513_123830_melville.all.mb58.gz 25.36MB Kongsberg multibeam vendor format
0223_20130513_130828_melville.all.mb58.gz 25.49MB Kongsberg multibeam vendor format
0224_20130513_133833_melville.all.mb58.gz 24.82MB Kongsberg multibeam vendor format
0225_20130513_140835_melville.all.mb58.gz 24.57MB Kongsberg multibeam vendor format
0226_20130513_143835_melville.all.mb58.gz 24.67MB Kongsberg multibeam vendor format
0227_20130513_150843_melville.all.mb58.gz 24.36MB Kongsberg multibeam vendor format
0228_20130513_153826_melville.all.mb58.gz 24.65MB Kongsberg multibeam vendor format
0229_20130513_160829_melville.all.mb58.gz 24.48MB Kongsberg multibeam vendor format
0230_20130513_163823_melville.all.mb58.gz 24.51MB Kongsberg multibeam vendor format
0231_20130513_170825_melville.all.mb58.gz 24.81MB Kongsberg multibeam vendor format
0232_20130513_173844_melville.all.mb58.gz 24.34MB Kongsberg multibeam vendor format
0233_20130513_180829_melville.all.mb58.gz 25.20MB Kongsberg multibeam vendor format
0234_20130513_183826_melville.all.mb58.gz 25.57MB Kongsberg multibeam vendor format
0235_20130513_190822_melville.all.mb58.gz 25.61MB Kongsberg multibeam vendor format
0236_20130513_193832_melville.all.mb58.gz 25.49MB Kongsberg multibeam vendor format
0237_20130513_200838_melville.all.mb58.gz 25.31MB Kongsberg multibeam vendor format
0238_20130513_203826_melville.all.mb58.gz 25.69MB Kongsberg multibeam vendor format
0239_20130513_210824_melville.all.mb58.gz 25.74MB Kongsberg multibeam vendor format
0240_20130513_213827_melville.all.mb58.gz 25.77MB Kongsberg multibeam vendor format
0241_20130513_220833_melville.all.mb58.gz 25.80MB Kongsberg multibeam vendor format
0242_20130513_223832_melville.all.mb58.gz 25.68MB Kongsberg multibeam vendor format
0243_20130513_230828_melville.all.mb58.gz 24.77MB Kongsberg multibeam vendor format
0244_20130513_233821_melville.all.mb58.gz 24.88MB Kongsberg multibeam vendor format
0245_20130514_000834_melville.all.mb58.gz 24.63MB Kongsberg multibeam vendor format
0246_20130514_003829_melville.all.mb58.gz 24.83MB Kongsberg multibeam vendor format
0247_20130514_010837_melville.all.mb58.gz 24.48MB Kongsberg multibeam vendor format
0248_20130514_013825_melville.all.mb58.gz 24.75MB Kongsberg multibeam vendor format
0249_20130514_020824_melville.all.mb58.gz 24.57MB Kongsberg multibeam vendor format
0250_20130514_023816_melville.all.mb58.gz 24.89MB Kongsberg multibeam vendor format
0251_20130514_030831_melville.all.mb58.gz 24.56MB Kongsberg multibeam vendor format
0252_20130514_033816_melville.all.mb58.gz 25.73MB Kongsberg multibeam vendor format
0253_20130514_040821_melville.all.mb58.gz 25.70MB Kongsberg multibeam vendor format
0254_20130514_043834_melville.all.mb58.gz 25.46MB Kongsberg multibeam vendor format
0255_20130514_050820_melville.all.mb58.gz 25.83MB Kongsberg multibeam vendor format
0256_20130514_053823_melville.all.mb58.gz 25.74MB Kongsberg multibeam vendor format
0257_20130514_060832_melville.all.mb58.gz 25.71MB Kongsberg multibeam vendor format
0258_20130514_063826_melville.all.mb58.gz 25.50MB Kongsberg multibeam vendor format
0259_20130514_070822_melville.all.mb58.gz 26.18MB Kongsberg multibeam vendor format
0260_20130514_073830_melville.all.mb58.gz 25.87MB Kongsberg multibeam vendor format
0261_20130514_080828_melville.all.mb58.gz 26.11MB Kongsberg multibeam vendor format
0262_20130514_083831_melville.all.mb58.gz 24.54MB Kongsberg multibeam vendor format
0263_20130514_090820_melville.all.mb58.gz 24.98MB Kongsberg multibeam vendor format
0264_20130514_093836_melville.all.mb58.gz 24.59MB Kongsberg multibeam vendor format
0265_20130514_100826_melville.all.mb58.gz 24.61MB Kongsberg multibeam vendor format
0266_20130514_103817_melville.all.mb58.gz 25.00MB Kongsberg multibeam vendor format
0267_20130514_110835_melville.all.mb58.gz 24.64MB Kongsberg multibeam vendor format
0268_20130514_113829_melville.all.mb58.gz 24.48MB Kongsberg multibeam vendor format
0269_20130514_120813_melville.all.mb58.gz 24.91MB Kongsberg multibeam vendor format
0270_20130514_123832_melville.all.mb58.gz 24.35MB Kongsberg multibeam vendor format
0271_20130514_130814_melville.all.mb58.gz 24.96MB Kongsberg multibeam vendor format
0272_20130514_133831_melville.all.mb58.gz 24.75MB Kongsberg multibeam vendor format
0273_20130514_140820_melville.all.mb58.gz 25.69MB Kongsberg multibeam vendor format
0274_20130514_143830_melville.all.mb58.gz 25.47MB Kongsberg multibeam vendor format
0275_20130514_150815_melville.all.mb58.gz 25.84MB Kongsberg multibeam vendor format
0276_20130514_153815_melville.all.mb58.gz 25.88MB Kongsberg multibeam vendor format
0277_20130514_160822_melville.all.mb58.gz 25.92MB Kongsberg multibeam vendor format
0278_20130514_163824_melville.all.mb58.gz 25.61MB Kongsberg multibeam vendor format
0279_20130514_170812_melville.all.mb58.gz 25.89MB Kongsberg multibeam vendor format
0280_20130514_173816_melville.all.mb58.gz 25.76MB Kongsberg multibeam vendor format
0281_20130514_180813_melville.all.mb58.gz 25.63MB Kongsberg multibeam vendor format
0282_20130514_183815_melville.all.mb58.gz 25.70MB Kongsberg multibeam vendor format
0283_20130514_190831_melville.all.mb58.gz 24.53MB Kongsberg multibeam vendor format
0284_20130514_193820_melville.all.mb58.gz 24.50MB Kongsberg multibeam vendor format
0285_20130514_200810_melville.all.mb58.gz 24.78MB Kongsberg multibeam vendor format
0286_20130514_203818_melville.all.mb58.gz 24.77MB Kongsberg multibeam vendor format
0287_20130514_210825_melville.all.mb58.gz 24.56MB Kongsberg multibeam vendor format
0288_20130514_213819_melville.all.mb58.gz 24.71MB Kongsberg multibeam vendor format
0289_20130514_220826_melville.all.mb58.gz 24.69MB Kongsberg multibeam vendor format
0290_20130514_223832_melville.all.mb58.gz 24.37MB Kongsberg multibeam vendor format
0291_20130514_230817_melville.all.mb58.gz 24.83MB Kongsberg multibeam vendor format
0292_20130514_233836_melville.all.mb58.gz 25.22MB Kongsberg multibeam vendor format
0293_20130515_000816_melville.all.mb58.gz 25.61MB Kongsberg multibeam vendor format
0294_20130515_003813_melville.all.mb58.gz 25.49MB Kongsberg multibeam vendor format
0295_20130515_010812_melville.all.mb58.gz 25.66MB Kongsberg multibeam vendor format
0296_20130515_013812_melville.all.mb58.gz 25.73MB Kongsberg multibeam vendor format
0297_20130515_020819_melville.all.mb58.gz 25.35MB Kongsberg multibeam vendor format
0298_20130515_023809_melville.all.mb58.gz 25.79MB Kongsberg multibeam vendor format
0299_20130515_030819_melville.all.mb58.gz 25.46MB Kongsberg multibeam vendor format
0300_20130515_033809_melville.all.mb58.gz 25.33MB Kongsberg multibeam vendor format
0301_20130515_040821_melville.all.mb58.gz 25.36MB Kongsberg multibeam vendor format
0302_20130515_043808_melville.all.mb58.gz 25.06MB Kongsberg multibeam vendor format
0303_20130515_050810_melville.all.mb58.gz 24.75MB Kongsberg multibeam vendor format
0304_20130515_053829_melville.all.mb58.gz 24.53MB Kongsberg multibeam vendor format
0305_20130515_060828_melville.all.mb58.gz 24.47MB Kongsberg multibeam vendor format
0306_20130515_063821_melville.all.mb58.gz 24.47MB Kongsberg multibeam vendor format
0307_20130515_070816_melville.all.mb58.gz 24.49MB Kongsberg multibeam vendor format
0308_20130515_073818_melville.all.mb58.gz 24.70MB Kongsberg multibeam vendor format
0309_20130515_080833_melville.all.mb58.gz 24.39MB Kongsberg multibeam vendor format
0310_20130515_083825_melville.all.mb58.gz 24.28MB Kongsberg multibeam vendor format
0311_20130515_090809_melville.all.mb58.gz 25.05MB Kongsberg multibeam vendor format
0312_20130515_093808_melville.all.mb58.gz 25.61MB Kongsberg multibeam vendor format
0313_20130515_100820_melville.all.mb58.gz 25.14MB Kongsberg multibeam vendor format
0314_20130515_103806_melville.all.mb58.gz 25.51MB Kongsberg multibeam vendor format
0315_20130515_110826_melville.all.mb58.gz 25.16MB Kongsberg multibeam vendor format
0316_20130515_113815_melville.all.mb58.gz 25.35MB Kongsberg multibeam vendor format
0317_20130515_120812_melville.all.mb58.gz 25.41MB Kongsberg multibeam vendor format
0318_20130515_123819_melville.all.mb58.gz 25.24MB Kongsberg multibeam vendor format
0319_20130515_130808_melville.all.mb58.gz 25.41MB Kongsberg multibeam vendor format
0320_20130515_133823_melville.all.mb58.gz 25.50MB Kongsberg multibeam vendor format
0321_20130515_140820_melville.all.mb58.gz 25.48MB Kongsberg multibeam vendor format
0322_20130515_143827_melville.all.mb58.gz 24.40MB Kongsberg multibeam vendor format
0323_20130515_150812_melville.all.mb58.gz 24.51MB Kongsberg multibeam vendor format
0324_20130515_153808_melville.all.mb58.gz 24.75MB Kongsberg multibeam vendor format
0325_20130515_160828_melville.all.mb58.gz 24.20MB Kongsberg multibeam vendor format
0326_20130515_163806_melville.all.mb58.gz 24.47MB Kongsberg multibeam vendor format
0327_20130515_170812_melville.all.mb58.gz 24.63MB Kongsberg multibeam vendor format
0328_20130515_173827_melville.all.mb58.gz 24.39MB Kongsberg multibeam vendor format
0329_20130515_180817_melville.all.mb58.gz 24.51MB Kongsberg multibeam vendor format
0330_20130515_183819_melville.all.mb58.gz 24.74MB Kongsberg multibeam vendor format
0331_20130515_190818_melville.all.mb58.gz 25.48MB Kongsberg multibeam vendor format
0332_20130515_193818_melville.all.mb58.gz 25.63MB Kongsberg multibeam vendor format
0333_20130515_200818_melville.all.mb58.gz 25.35MB Kongsberg multibeam vendor format
0334_20130515_203814_melville.all.mb58.gz 25.58MB Kongsberg multibeam vendor format
0335_20130515_210808_melville.all.mb58.gz 25.80MB Kongsberg multibeam vendor format
0336_20130515_213811_melville.all.mb58.gz 25.36MB Kongsberg multibeam vendor format
0337_20130515_220815_melville.all.mb58.gz 25.46MB Kongsberg multibeam vendor format
0338_20130515_223808_melville.all.mb58.gz 25.26MB Kongsberg multibeam vendor format
0339_20130515_230811_melville.all.mb58.gz 25.26MB Kongsberg multibeam vendor format
0340_20130515_233813_melville.all.mb58.gz 25.15MB Kongsberg multibeam vendor format
0341_20130516_000809_melville.all.mb58.gz 25.30MB Kongsberg multibeam vendor format
0342_20130516_003817_melville.all.mb58.gz 25.00MB Kongsberg multibeam vendor format
0343_20130516_010818_melville.all.mb58.gz 24.97MB Kongsberg multibeam vendor format
0344_20130516_013821_melville.all.mb58.gz 24.82MB Kongsberg multibeam vendor format
0345_20130516_020808_melville.all.mb58.gz 24.85MB Kongsberg multibeam vendor format
0346_20130516_023803_melville.all.mb58.gz 25.07MB Kongsberg multibeam vendor format
0347_20130516_030813_melville.all.mb58.gz 24.80MB Kongsberg multibeam vendor format
0348_20130516_033804_melville.all.mb58.gz 24.90MB Kongsberg multibeam vendor format
0349_20130516_040800_melville.all.mb58.gz 25.30MB Kongsberg multibeam vendor format
0350_20130516_043822_melville.all.mb58.gz 25.08MB Kongsberg multibeam vendor format
0351_20130516_050811_melville.all.mb58.gz 25.37MB Kongsberg multibeam vendor format
0352_20130516_053811_melville.all.mb58.gz 25.34MB Kongsberg multibeam vendor format
0353_20130516_060801_melville.all.mb58.gz 25.47MB Kongsberg multibeam vendor format
0354_20130516_063801_melville.all.mb58.gz 25.69MB Kongsberg multibeam vendor format
0355_20130516_070807_melville.all.mb58.gz 25.59MB Kongsberg multibeam vendor format
0356_20130516_073816_melville.all.mb58.gz 25.28MB Kongsberg multibeam vendor format
0357_20130516_080803_melville.all.mb58.gz 25.45MB Kongsberg multibeam vendor format
0358_20130516_083815_melville.all.mb58.gz 25.16MB Kongsberg multibeam vendor format
0359_20130516_090803_melville.all.mb58.gz 25.37MB Kongsberg multibeam vendor format
0360_20130516_093758_melville.all.mb58.gz 24.79MB Kongsberg multibeam vendor format
0361_20130516_100758_melville.all.mb58.gz 24.67MB Kongsberg multibeam vendor format
0362_20130516_103801_melville.all.mb58.gz 24.39MB Kongsberg multibeam vendor format
0363_20130516_110800_melville.all.mb58.gz 24.68MB Kongsberg multibeam vendor format
0364_20130516_113812_melville.all.mb58.gz 24.76MB Kongsberg multibeam vendor format
0365_20130516_120819_melville.all.mb58.gz 24.70MB Kongsberg multibeam vendor format
0366_20130516_123811_melville.all.mb58.gz 24.57MB Kongsberg multibeam vendor format
0367_20130516_130820_melville.all.mb58.gz 24.65MB Kongsberg multibeam vendor format
0368_20130516_133819_melville.all.mb58.gz 24.52MB Kongsberg multibeam vendor format
0369_20130516_140757_melville.all.mb58.gz 25.28MB Kongsberg multibeam vendor format
0370_20130516_143816_melville.all.mb58.gz 25.99MB Kongsberg multibeam vendor format
0371_20130516_150800_melville.all.mb58.gz 26.60MB Kongsberg multibeam vendor format
0372_20130516_153809_melville.all.mb58.gz 26.43MB Kongsberg multibeam vendor format
0373_20130516_160808_melville.all.mb58.gz 26.28MB Kongsberg multibeam vendor format
0374_20130516_163814_melville.all.mb58.gz 26.24MB Kongsberg multibeam vendor format
0375_20130516_170812_melville.all.mb58.gz 25.96MB Kongsberg multibeam vendor format
0376_20130516_173802_melville.all.mb58.gz 26.17MB Kongsberg multibeam vendor format
0377_20130516_180813_melville.all.mb58.gz 25.49MB Kongsberg multibeam vendor format
0378_20130516_183755_melville.all.mb58.gz 25.41MB Kongsberg multibeam vendor format
0379_20130516_190814_melville.all.mb58.gz 25.13MB Kongsberg multibeam vendor format
0380_20130516_193815_melville.all.mb58.gz 24.99MB Kongsberg multibeam vendor format
0381_20130516_200810_melville.all.mb58.gz 25.14MB Kongsberg multibeam vendor format
0382_20130516_203814_melville.all.mb58.gz 24.84MB Kongsberg multibeam vendor format
0383_20130516_210805_melville.all.mb58.gz 25.05MB Kongsberg multibeam vendor format
0384_20130516_213818_melville.all.mb58.gz 24.55MB Kongsberg multibeam vendor format
0385_20130516_220802_melville.all.mb58.gz 25.10MB Kongsberg multibeam vendor format
0386_20130516_223806_melville.all.mb58.gz 26.00MB Kongsberg multibeam vendor format
0387_20130516_230754_melville.all.mb58.gz 26.07MB Kongsberg multibeam vendor format
0388_20130516_233804_melville.all.mb58.gz 26.06MB Kongsberg multibeam vendor format
0389_20130517_000808_melville.all.mb58.gz 25.77MB Kongsberg multibeam vendor format
0390_20130517_003755_melville.all.mb58.gz 25.60MB Kongsberg multibeam vendor format
0391_20130517_010755_melville.all.mb58.gz 26.19MB Kongsberg multibeam vendor format
0392_20130517_013800_melville.all.mb58.gz 25.82MB Kongsberg multibeam vendor format
0393_20130517_020802_melville.all.mb58.gz 25.42MB Kongsberg multibeam vendor format
0394_20130517_023807_melville.all.mb58.gz 24.93MB Kongsberg multibeam vendor format
0395_20130517_030758_melville.all.mb58.gz 25.03MB Kongsberg multibeam vendor format
0396_20130517_033801_melville.all.mb58.gz 25.01MB Kongsberg multibeam vendor format
0397_20130517_040801_melville.all.mb58.gz 25.20MB Kongsberg multibeam vendor format
0398_20130517_043810_melville.all.mb58.gz 24.95MB Kongsberg multibeam vendor format
0399_20130517_050809_melville.all.mb58.gz 24.63MB Kongsberg multibeam vendor format
0400_20130517_053754_melville.all.mb58.gz 24.83MB Kongsberg multibeam vendor format
0401_20130517_060808_melville.all.mb58.gz 24.79MB Kongsberg multibeam vendor format
0402_20130517_063808_melville.all.mb58.gz 26.06MB Kongsberg multibeam vendor format
0403_20130517_070800_melville.all.mb58.gz 25.75MB Kongsberg multibeam vendor format
0404_20130517_073801_melville.all.mb58.gz 25.84MB Kongsberg multibeam vendor format
0405_20130517_080758_melville.all.mb58.gz 25.24MB Kongsberg multibeam vendor format
0406_20130517_083751_melville.all.mb58.gz 26.14MB Kongsberg multibeam vendor format
0407_20130517_090816_melville.all.mb58.gz 24.63MB Kongsberg multibeam vendor format
0408_20130517_093752_melville.all.mb58.gz 25.15MB Kongsberg multibeam vendor format
0409_20130517_100814_melville.all.mb58.gz 24.61MB Kongsberg multibeam vendor format
0410_20130517_103757_melville.all.mb58.gz 24.92MB Kongsberg multibeam vendor format
0411_20130517_110800_melville.all.mb58.gz 24.78MB Kongsberg multibeam vendor format
0412_20130517_113758_melville.all.mb58.gz 24.88MB Kongsberg multibeam vendor format
0413_20130517_120757_melville.all.mb58.gz 25.04MB Kongsberg multibeam vendor format
0414_20130517_123806_melville.all.mb58.gz 24.50MB Kongsberg multibeam vendor format
0415_20130517_130753_melville.all.mb58.gz 25.53MB Kongsberg multibeam vendor format
0416_20130517_133756_melville.all.mb58.gz 26.00MB Kongsberg multibeam vendor format
0417_20130517_140806_melville.all.mb58.gz 25.60MB Kongsberg multibeam vendor format
0418_20130517_143757_melville.all.mb58.gz 25.50MB Kongsberg multibeam vendor format
0419_20130517_150758_melville.all.mb58.gz 25.29MB Kongsberg multibeam vendor format
0420_20130517_153801_melville.all.mb58.gz 25.35MB Kongsberg multibeam vendor format
0421_20130517_160755_melville.all.mb58.gz 24.77MB Kongsberg multibeam vendor format
0422_20130517_163753_melville.all.mb58.gz 24.99MB Kongsberg multibeam vendor format
0423_20130517_170801_melville.all.mb58.gz 24.79MB Kongsberg multibeam vendor format
0424_20130517_173756_melville.all.mb58.gz 25.01MB Kongsberg multibeam vendor format
0425_20130517_180806_melville.all.mb58.gz 24.60MB Kongsberg multibeam vendor format
0426_20130517_183748_melville.all.mb58.gz 24.79MB Kongsberg multibeam vendor format
0427_20130517_190805_melville.all.mb58.gz 24.71MB Kongsberg multibeam vendor format
0428_20130517_193810_melville.all.mb58.gz 24.30MB Kongsberg multibeam vendor format
0429_20130517_200753_melville.all.mb58.gz 25.45MB Kongsberg multibeam vendor format
0430_20130517_203751_melville.all.mb58.gz 25.90MB Kongsberg multibeam vendor format
0431_20130517_210759_melville.all.mb58.gz 25.26MB Kongsberg multibeam vendor format
0432_20130517_213802_melville.all.mb58.gz 24.73MB Kongsberg multibeam vendor format
0433_20130517_220756_melville.all.mb58.gz 24.91MB Kongsberg multibeam vendor format
0434_20130517_223801_melville.all.mb58.gz 24.57MB Kongsberg multibeam vendor format
0435_20130517_230750_melville.all.mb58.gz 24.78MB Kongsberg multibeam vendor format
0436_20130517_233809_melville.all.mb58.gz 24.35MB Kongsberg multibeam vendor format
0437_20130518_000750_melville.all.mb58.gz 24.93MB Kongsberg multibeam vendor format
0438_20130518_003808_melville.all.mb58.gz 24.70MB Kongsberg multibeam vendor format
0439_20130518_010807_melville.all.mb58.gz 24.43MB Kongsberg multibeam vendor format
0440_20130518_013747_melville.all.mb58.gz 24.87MB Kongsberg multibeam vendor format
0441_20130518_020807_melville.all.mb58.gz 24.56MB Kongsberg multibeam vendor format
0442_20130518_023759_melville.all.mb58.gz 24.91MB Kongsberg multibeam vendor format
0443_20130518_030804_melville.all.mb58.gz 25.03MB Kongsberg multibeam vendor format
0444_20130518_033753_melville.all.mb58.gz 25.39MB Kongsberg multibeam vendor format
0445_20130518_040747_melville.all.mb58.gz 25.13MB Kongsberg multibeam vendor format
0446_20130518_043757_melville.all.mb58.gz 24.90MB Kongsberg multibeam vendor format
0447_20130518_050746_melville.all.mb58.gz 25.55MB Kongsberg multibeam vendor format
0448_20130518_053801_melville.all.mb58.gz 24.52MB Kongsberg multibeam vendor format
0449_20130518_060747_melville.all.mb58.gz 24.60MB Kongsberg multibeam vendor format
0450_20130518_063756_melville.all.mb58.gz 24.22MB Kongsberg multibeam vendor format
0451_20130518_070745_melville.all.mb58.gz 24.66MB Kongsberg multibeam vendor format
0452_20130518_073744_melville.all.mb58.gz 24.72MB Kongsberg multibeam vendor format
0453_20130518_080750_melville.all.mb58.gz 24.57MB Kongsberg multibeam vendor format
0454_20130518_083754_melville.all.mb58.gz 24.65MB Kongsberg multibeam vendor format
0455_20130518_090754_melville.all.mb58.gz 24.52MB Kongsberg multibeam vendor format
0456_20130518_093753_melville.all.mb58.gz 24.96MB Kongsberg multibeam vendor format
0457_20130518_100803_melville.all.mb58.gz 25.09MB Kongsberg multibeam vendor format
0458_20130518_103750_melville.all.mb58.gz 25.36MB Kongsberg multibeam vendor format
0459_20130518_110754_melville.all.mb58.gz 25.68MB Kongsberg multibeam vendor format
0460_20130518_113800_melville.all.mb58.gz 25.85MB Kongsberg multibeam vendor format
0461_20130518_120754_melville.all.mb58.gz 24.89MB Kongsberg multibeam vendor format
0462_20130518_123749_melville.all.mb58.gz 24.35MB Kongsberg multibeam vendor format
0463_20130518_130748_melville.all.mb58.gz 24.55MB Kongsberg multibeam vendor format
0464_20130518_133753_melville.all.mb58.gz 24.86MB Kongsberg multibeam vendor format
0465_20130518_140754_melville.all.mb58.gz 24.71MB Kongsberg multibeam vendor format
0466_20130518_143755_melville.all.mb58.gz 24.81MB Kongsberg multibeam vendor format
0467_20130518_150753_melville.all.mb58.gz 25.05MB Kongsberg multibeam vendor format
0468_20130518_153806_melville.all.mb58.gz 24.56MB Kongsberg multibeam vendor format
0469_20130518_160755_melville.all.mb58.gz 24.90MB Kongsberg multibeam vendor format
0470_20130518_163800_melville.all.mb58.gz 25.13MB Kongsberg multibeam vendor format
0471_20130518_170746_melville.all.mb58.gz 25.75MB Kongsberg multibeam vendor format
0472_20130518_173740_melville.all.mb58.gz 25.54MB Kongsberg multibeam vendor format
0473_20130518_180756_melville.all.mb58.gz 25.28MB Kongsberg multibeam vendor format
0474_20130518_183749_melville.all.mb58.gz 44.13MB Kongsberg multibeam vendor format
0474_20130518_193626_melville.all.mb58.gz 25.38MB Kongsberg multibeam vendor format
0475_20130518_200634_melville.all.mb58.gz 25.27MB Kongsberg multibeam vendor format
0476_20130518_203635_melville.all.mb58.gz 25.06MB Kongsberg multibeam vendor format
0477_20130518_210624_melville.all.mb58.gz 25.49MB Kongsberg multibeam vendor format
0478_20130518_213632_melville.all.mb58.gz 25.13MB Kongsberg multibeam vendor format
0479_20130518_220630_melville.all.mb58.gz 25.29MB Kongsberg multibeam vendor format
0480_20130518_223625_melville.all.mb58.gz 25.59MB Kongsberg multibeam vendor format
0481_20130518_230635_melville.all.mb58.gz 25.20MB Kongsberg multibeam vendor format
0482_20130518_233631_melville.all.mb58.gz 22.05MB Kongsberg multibeam vendor format
0483_20130519_000535_melville.all.mb58.gz 26.21MB Kongsberg multibeam vendor format
0484_20130519_003548_melville.all.mb58.gz 26.14MB Kongsberg multibeam vendor format
0485_20130519_010552_melville.all.mb58.gz 26.08MB Kongsberg multibeam vendor format
0486_20130519_013551_melville.all.mb58.gz 26.06MB Kongsberg multibeam vendor format
0487_20130519_020555_melville.all.mb58.gz 25.42MB Kongsberg multibeam vendor format
0488_20130519_023550_melville.all.mb58.gz 25.30MB Kongsberg multibeam vendor format
0489_20130519_030603_melville.all.mb58.gz 24.87MB Kongsberg multibeam vendor format
0490_20130519_033551_melville.all.mb58.gz 25.30MB Kongsberg multibeam vendor format
0491_20130519_040604_melville.all.mb58.gz 24.71MB Kongsberg multibeam vendor format
0492_20130519_043545_melville.all.mb58.gz 25.03MB Kongsberg multibeam vendor format
0493_20130519_050546_melville.all.mb58.gz 24.95MB Kongsberg multibeam vendor format
0494_20130519_053543_melville.all.mb58.gz 25.08MB Kongsberg multibeam vendor format
0495_20130519_060605_melville.all.mb58.gz 25.35MB Kongsberg multibeam vendor format
0496_20130519_063545_melville.all.mb58.gz 26.05MB Kongsberg multibeam vendor format
0497_20130519_070558_melville.all.mb58.gz 25.57MB Kongsberg multibeam vendor format
0498_20130519_073540_melville.all.mb58.gz 26.25MB Kongsberg multibeam vendor format
0499_20130519_080554_melville.all.mb58.gz 26.19MB Kongsberg multibeam vendor format
0500_20130519_083557_melville.all.mb58.gz 26.47MB Kongsberg multibeam vendor format
0501_20130519_090544_melville.all.mb58.gz 25.68MB Kongsberg multibeam vendor format
0502_20130519_093558_melville.all.mb58.gz 25.24MB Kongsberg multibeam vendor format
0503_20130519_100602_melville.all.mb58.gz 24.71MB Kongsberg multibeam vendor format
0504_20130519_103543_melville.all.mb58.gz 24.94MB Kongsberg multibeam vendor format
0505_20130519_110544_melville.all.mb58.gz 25.16MB Kongsberg multibeam vendor format
0506_20130519_113557_melville.all.mb58.gz 24.95MB Kongsberg multibeam vendor format
0507_20130519_120558_melville.all.mb58.gz 24.83MB Kongsberg multibeam vendor format
0508_20130519_123548_melville.all.mb58.gz 25.13MB Kongsberg multibeam vendor format
0509_20130519_130557_melville.all.mb58.gz 24.95MB Kongsberg multibeam vendor format
0510_20130519_133543_melville.all.mb58.gz 25.48MB Kongsberg multibeam vendor format
0511_20130519_140541_melville.all.mb58.gz 26.21MB Kongsberg multibeam vendor format
0512_20130519_143545_melville.all.mb58.gz 26.27MB Kongsberg multibeam vendor format
0513_20130519_150549_melville.all.mb58.gz 26.28MB Kongsberg multibeam vendor format
0514_20130519_153548_melville.all.mb58.gz 26.11MB Kongsberg multibeam vendor format
0515_20130519_160547_melville.all.mb58.gz 25.98MB Kongsberg multibeam vendor format
0516_20130519_163554_melville.all.mb58.gz 25.84MB Kongsberg multibeam vendor format
0517_20130519_170538_melville.all.mb58.gz 25.77MB Kongsberg multibeam vendor format
0518_20130519_173553_melville.all.mb58.gz 25.03MB Kongsberg multibeam vendor format
0519_20130519_180552_melville.all.mb58.gz 24.82MB Kongsberg multibeam vendor format
0520_20130519_183536_melville.all.mb58.gz 25.33MB Kongsberg multibeam vendor format
0521_20130519_190536_melville.all.mb58.gz 25.38MB Kongsberg multibeam vendor format
0522_20130519_193545_melville.all.mb58.gz 25.16MB Kongsberg multibeam vendor format
0523_20130519_200542_melville.all.mb58.gz 25.29MB Kongsberg multibeam vendor format
0524_20130519_203549_melville.all.mb58.gz 25.20MB Kongsberg multibeam vendor format
0525_20130519_210538_melville.all.mb58.gz 26.29MB Kongsberg multibeam vendor format
0526_20130519_213552_melville.all.mb58.gz 26.01MB Kongsberg multibeam vendor format
0527_20130519_220549_melville.all.mb58.gz 25.80MB Kongsberg multibeam vendor format
0528_20130519_223544_melville.all.mb58.gz 25.97MB Kongsberg multibeam vendor format
0529_20130519_230540_melville.all.mb58.gz 26.25MB Kongsberg multibeam vendor format
0530_20130519_233551_melville.all.mb58.gz 25.49MB Kongsberg multibeam vendor format
0531_20130520_000543_melville.all.mb58.gz 25.94MB Kongsberg multibeam vendor format
0532_20130520_003556_melville.all.mb58.gz 25.37MB Kongsberg multibeam vendor format
0533_20130520_010556_melville.all.mb58.gz 24.97MB Kongsberg multibeam vendor format
0534_20130520_013539_melville.all.mb58.gz 25.43MB Kongsberg multibeam vendor format
0535_20130520_020547_melville.all.mb58.gz 25.42MB Kongsberg multibeam vendor format
0536_20130520_023552_melville.all.mb58.gz 25.32MB Kongsberg multibeam vendor format
0537_20130520_030541_melville.all.mb58.gz 25.49MB Kongsberg multibeam vendor format
0538_20130520_033551_melville.all.mb58.gz 25.30MB Kongsberg multibeam vendor format
0539_20130520_040545_melville.all.mb58.gz 25.33MB Kongsberg multibeam vendor format
0540_20130520_043534_melville.all.mb58.gz 25.88MB Kongsberg multibeam vendor format
0541_20130520_050548_melville.all.mb58.gz 26.01MB Kongsberg multibeam vendor format
0542_20130520_053533_melville.all.mb58.gz 26.01MB Kongsberg multibeam vendor format
0543_20130520_060536_melville.all.mb58.gz 26.19MB Kongsberg multibeam vendor format
0544_20130520_063549_melville.all.mb58.gz 25.58MB Kongsberg multibeam vendor format
0545_20130520_070535_melville.all.mb58.gz 25.88MB Kongsberg multibeam vendor format
0546_20130520_073540_melville.all.mb58.gz 25.30MB Kongsberg multibeam vendor format
0547_20130520_080537_melville.all.mb58.gz 25.27MB Kongsberg multibeam vendor format
0548_20130520_083535_melville.all.mb58.gz 25.47MB Kongsberg multibeam vendor format
0549_20130520_090551_melville.all.mb58.gz 25.15MB Kongsberg multibeam vendor format
0550_20130520_093539_melville.all.mb58.gz 25.42MB Kongsberg multibeam vendor format
0551_20130520_100546_melville.all.mb58.gz 25.24MB Kongsberg multibeam vendor format
0552_20130520_103548_melville.all.mb58.gz 25.13MB Kongsberg multibeam vendor format
0553_20130520_110534_melville.all.mb58.gz 25.34MB Kongsberg multibeam vendor format
0554_20130520_113541_melville.all.mb58.gz 25.20MB Kongsberg multibeam vendor format
0555_20130520_120539_melville.all.mb58.gz 25.28MB Kongsberg multibeam vendor format
0556_20130520_123545_melville.all.mb58.gz 25.67MB Kongsberg multibeam vendor format
0557_20130520_130541_melville.all.mb58.gz 26.12MB Kongsberg multibeam vendor format
0558_20130520_133536_melville.all.mb58.gz 26.37MB Kongsberg multibeam vendor format
0559_20130520_140546_melville.all.mb58.gz 25.91MB Kongsberg multibeam vendor format
0560_20130520_143549_melville.all.mb58.gz 25.54MB Kongsberg multibeam vendor format
0561_20130520_150533_melville.all.mb58.gz 26.25MB Kongsberg multibeam vendor format
0562_20130520_153546_melville.all.mb58.gz 25.93MB Kongsberg multibeam vendor format
0563_20130520_160537_melville.all.mb58.gz 25.26MB Kongsberg multibeam vendor format
0564_20130520_163554_melville.all.mb58.gz 24.71MB Kongsberg multibeam vendor format
0565_20130520_170550_melville.all.mb58.gz 24.68MB Kongsberg multibeam vendor format
0566_20130520_173540_melville.all.mb58.gz 24.73MB Kongsberg multibeam vendor format
0567_20130520_180540_melville.all.mb58.gz 24.65MB Kongsberg multibeam vendor format
0568_20130520_183536_melville.all.mb58.gz 24.81MB Kongsberg multibeam vendor format
0569_20130520_190539_melville.all.mb58.gz 24.70MB Kongsberg multibeam vendor format
0570_20130520_193539_melville.all.mb58.gz 24.86MB Kongsberg multibeam vendor format
0571_20130520_200534_melville.all.mb58.gz 26.01MB Kongsberg multibeam vendor format
0572_20130520_203541_melville.all.mb58.gz 26.20MB Kongsberg multibeam vendor format
0573_20130520_210545_melville.all.mb58.gz 25.78MB Kongsberg multibeam vendor format
0574_20130520_213532_melville.all.mb58.gz 26.07MB Kongsberg multibeam vendor format
0575_20130520_220529_melville.all.mb58.gz 25.95MB Kongsberg multibeam vendor format
0576_20130520_223541_melville.all.mb58.gz 25.75MB Kongsberg multibeam vendor format
0577_20130520_230534_melville.all.mb58.gz 26.11MB Kongsberg multibeam vendor format
0578_20130520_233547_melville.all.mb58.gz 25.18MB Kongsberg multibeam vendor format
0579_20130521_000539_melville.all.mb58.gz 25.36MB Kongsberg multibeam vendor format
0580_20130521_003538_melville.all.mb58.gz 25.35MB Kongsberg multibeam vendor format
0581_20130521_010536_melville.all.mb58.gz 24.99MB Kongsberg multibeam vendor format
0582_20130521_013534_melville.all.mb58.gz 25.41MB Kongsberg multibeam vendor format
0583_20130521_020535_melville.all.mb58.gz 25.30MB Kongsberg multibeam vendor format
0584_20130521_023533_melville.all.mb58.gz 25.10MB Kongsberg multibeam vendor format
0585_20130521_030528_melville.all.mb58.gz 25.62MB Kongsberg multibeam vendor format
0586_20130521_033542_melville.all.mb58.gz 25.82MB Kongsberg multibeam vendor format
0587_20130521_040529_melville.all.mb58.gz 26.32MB Kongsberg multibeam vendor format
0588_20130521_043540_melville.all.mb58.gz 26.04MB Kongsberg multibeam vendor format
0589_20130521_050545_melville.all.mb58.gz 26.09MB Kongsberg multibeam vendor format
0590_20130521_053541_melville.all.mb58.gz 26.26MB Kongsberg multibeam vendor format
0591_20130521_060533_melville.all.mb58.gz 26.27MB Kongsberg multibeam vendor format
0592_20130521_063526_melville.all.mb58.gz 26.69MB Kongsberg multibeam vendor format
0593_20130521_070534_melville.all.mb58.gz 25.49MB Kongsberg multibeam vendor format
0594_20130521_073527_melville.all.mb58.gz 25.55MB Kongsberg multibeam vendor format
0595_20130521_080534_melville.all.mb58.gz 25.44MB Kongsberg multibeam vendor format
0596_20130521_083536_melville.all.mb58.gz 25.40MB Kongsberg multibeam vendor format
0597_20130521_090536_melville.all.mb58.gz 25.40MB Kongsberg multibeam vendor format
0598_20130521_093531_melville.all.mb58.gz 25.54MB Kongsberg multibeam vendor format
0599_20130521_100536_melville.all.mb58.gz 25.37MB Kongsberg multibeam vendor format
0600_20130521_103529_melville.all.mb58.gz 25.59MB Kongsberg multibeam vendor format
0601_20130521_110535_melville.all.mb58.gz 26.09MB Kongsberg multibeam vendor format
0602_20130521_113526_melville.all.mb58.gz 26.32MB Kongsberg multibeam vendor format
0603_20130521_120539_melville.all.mb58.gz 26.05MB Kongsberg multibeam vendor format
0604_20130521_123543_melville.all.mb58.gz 25.41MB Kongsberg multibeam vendor format
0605_20130521_130534_melville.all.mb58.gz 25.94MB Kongsberg multibeam vendor format
0606_20130521_133527_melville.all.mb58.gz 26.08MB Kongsberg multibeam vendor format
0607_20130521_140530_melville.all.mb58.gz 18.18MB Kongsberg multibeam vendor format
0608_20130521_144737_melville.all.mb58.gz 25.37MB Kongsberg multibeam vendor format
0609_20130521_151718_melville.all.mb58.gz 25.40MB Kongsberg multibeam vendor format
0610_20130521_154735_melville.all.mb58.gz 25.14MB Kongsberg multibeam vendor format
0611_20130521_161734_melville.all.mb58.gz 25.14MB Kongsberg multibeam vendor format
0612_20130521_164731_melville.all.mb58.gz 25.07MB Kongsberg multibeam vendor format
0613_20130521_171728_melville.all.mb58.gz 24.95MB Kongsberg multibeam vendor format
0614_20130521_174719_melville.all.mb58.gz 25.15MB Kongsberg multibeam vendor format
0615_20130521_181722_melville.all.mb58.gz 25.21MB Kongsberg multibeam vendor format
0616_20130521_184728_melville.all.mb58.gz 25.65MB Kongsberg multibeam vendor format
0617_20130521_191730_melville.all.mb58.gz 25.75MB Kongsberg multibeam vendor format
0618_20130521_194726_melville.all.mb58.gz 26.04MB Kongsberg multibeam vendor format
0619_20130521_201726_melville.all.mb58.gz 25.91MB Kongsberg multibeam vendor format
0620_20130521_204725_melville.all.mb58.gz 26.15MB Kongsberg multibeam vendor format
0621_20130521_211716_melville.all.mb58.gz 26.45MB Kongsberg multibeam vendor format
0622_20130521_214730_melville.all.mb58.gz 25.85MB Kongsberg multibeam vendor format
0623_20130521_221722_melville.all.mb58.gz 26.35MB Kongsberg multibeam vendor format
0624_20130521_224734_melville.all.mb58.gz 24.91MB Kongsberg multibeam vendor format
0625_20130521_231736_melville.all.mb58.gz 24.68MB Kongsberg multibeam vendor format
0626_20130521_234734_melville.all.mb58.gz 25.09MB Kongsberg multibeam vendor format
0627_20130522_001722_melville.all.mb58.gz 25.20MB Kongsberg multibeam vendor format
0628_20130522_004726_melville.all.mb58.gz 25.31MB Kongsberg multibeam vendor format
0629_20130522_011730_melville.all.mb58.gz 25.01MB Kongsberg multibeam vendor format
0630_20130522_014714_melville.all.mb58.gz 25.30MB Kongsberg multibeam vendor format
0631_20130522_021712_melville.all.mb58.gz 25.66MB Kongsberg multibeam vendor format
0632_20130522_024716_melville.all.mb58.gz 25.98MB Kongsberg multibeam vendor format
0633_20130522_031716_melville.all.mb58.gz 25.99MB Kongsberg multibeam vendor format
0634_20130522_034715_melville.all.mb58.gz 26.10MB Kongsberg multibeam vendor format
0635_20130522_041713_melville.all.mb58.gz 26.43MB Kongsberg multibeam vendor format
0636_20130522_044718_melville.all.mb58.gz 25.70MB Kongsberg multibeam vendor format
0637_20130522_051726_melville.all.mb58.gz 25.78MB Kongsberg multibeam vendor format
0638_20130522_054725_melville.all.mb58.gz 25.72MB Kongsberg multibeam vendor format
0639_20130522_061712_melville.all.mb58.gz 25.64MB Kongsberg multibeam vendor format
0640_20130522_064717_melville.all.mb58.gz 25.42MB Kongsberg multibeam vendor format
0641_20130522_071712_melville.all.mb58.gz 25.44MB Kongsberg multibeam vendor format
0642_20130522_074717_melville.all.mb58.gz 25.59MB Kongsberg multibeam vendor format
0643_20130522_081730_melville.all.mb58.gz 25.25MB Kongsberg multibeam vendor format
0644_20130522_084718_melville.all.mb58.gz 25.25MB Kongsberg multibeam vendor format
0645_20130522_091710_melville.all.mb58.gz 25.64MB Kongsberg multibeam vendor format
0646_20130522_094727_melville.all.mb58.gz 25.43MB Kongsberg multibeam vendor format
0647_20130522_101727_melville.all.mb58.gz 25.78MB Kongsberg multibeam vendor format
0648_20130522_104724_melville.all.mb58.gz 26.42MB Kongsberg multibeam vendor format
0649_20130522_111723_melville.all.mb58.gz 26.18MB Kongsberg multibeam vendor format
0650_20130522_114725_melville.all.mb58.gz 26.37MB Kongsberg multibeam vendor format
0651_20130522_121717_melville.all.mb58.gz 26.43MB Kongsberg multibeam vendor format
0652_20130522_124718_melville.all.mb58.gz 26.03MB Kongsberg multibeam vendor format
0653_20130522_131712_melville.all.mb58.gz 26.00MB Kongsberg multibeam vendor format
0654_20130522_134710_melville.all.mb58.gz 26.07MB Kongsberg multibeam vendor format
0655_20130522_141717_melville.all.mb58.gz 24.95MB Kongsberg multibeam vendor format
0656_20130522_144715_melville.all.mb58.gz 25.07MB Kongsberg multibeam vendor format
0657_20130522_151727_melville.all.mb58.gz 24.79MB Kongsberg multibeam vendor format
0658_20130522_154722_melville.all.mb58.gz 24.84MB Kongsberg multibeam vendor format
0659_20130522_161719_melville.all.mb58.gz 24.84MB Kongsberg multibeam vendor format
0660_20130522_164715_melville.all.mb58.gz 24.86MB Kongsberg multibeam vendor format
0661_20130522_171709_melville.all.mb58.gz 24.87MB Kongsberg multibeam vendor format
0662_20130522_174708_melville.all.mb58.gz 25.87MB Kongsberg multibeam vendor format
0663_20130522_181715_melville.all.mb58.gz 25.96MB Kongsberg multibeam vendor format
0664_20130522_184718_melville.all.mb58.gz 26.12MB Kongsberg multibeam vendor format
0665_20130522_191710_melville.all.mb58.gz 26.18MB Kongsberg multibeam vendor format
0666_20130522_194714_melville.all.mb58.gz 26.28MB Kongsberg multibeam vendor format
0667_20130522_201715_melville.all.mb58.gz 26.18MB Kongsberg multibeam vendor format
0668_20130522_204716_melville.all.mb58.gz 25.85MB Kongsberg multibeam vendor format
0669_20130522_211717_melville.all.mb58.gz 25.93MB Kongsberg multibeam vendor format
0670_20130522_214718_melville.all.mb58.gz 25.95MB Kongsberg multibeam vendor format
0671_20130522_221721_melville.all.mb58.gz 25.57MB Kongsberg multibeam vendor format
0672_20130522_224712_melville.all.mb58.gz 25.98MB Kongsberg multibeam vendor format
0673_20130522_231718_melville.all.mb58.gz 25.89MB Kongsberg multibeam vendor format
0674_20130522_234720_melville.all.mb58.gz 25.80MB Kongsberg multibeam vendor format
0675_20130523_001712_melville.all.mb58.gz 25.86MB Kongsberg multibeam vendor format
0676_20130523_004722_melville.all.mb58.gz 25.83MB Kongsberg multibeam vendor format
0677_20130523_011723_melville.all.mb58.gz 25.81MB Kongsberg multibeam vendor format
0678_20130523_014710_melville.all.mb58.gz 26.23MB Kongsberg multibeam vendor format
0679_20130523_021715_melville.all.mb58.gz 26.45MB Kongsberg multibeam vendor format
0680_20130523_024723_melville.all.mb58.gz 25.65MB Kongsberg multibeam vendor format
0681_20130523_031717_melville.all.mb58.gz 26.12MB Kongsberg multibeam vendor format
0682_20130523_034721_melville.all.mb58.gz 26.01MB Kongsberg multibeam vendor format
0683_20130523_041721_melville.all.mb58.gz 25.96MB Kongsberg multibeam vendor format
0684_20130523_044709_melville.all.mb58.gz 26.39MB Kongsberg multibeam vendor format
0685_20130523_051714_melville.all.mb58.gz 25.73MB Kongsberg multibeam vendor format
0686_20130523_054706_melville.all.mb58.gz 25.60MB Kongsberg multibeam vendor format
0687_20130523_061712_melville.all.mb58.gz 25.49MB Kongsberg multibeam vendor format
0688_20130523_064715_melville.all.mb58.gz 25.69MB Kongsberg multibeam vendor format
0689_20130523_071718_melville.all.mb58.gz 25.28MB Kongsberg multibeam vendor format
0690_20130523_074713_melville.all.mb58.gz 25.37MB Kongsberg multibeam vendor format
0691_20130523_081713_melville.all.mb58.gz 25.83MB Kongsberg multibeam vendor format
0692_20130523_084710_melville.all.mb58.gz 26.19MB Kongsberg multibeam vendor format
0693_20130523_091719_melville.all.mb58.gz 26.33MB Kongsberg multibeam vendor format
0694_20130523_094716_melville.all.mb58.gz 26.10MB Kongsberg multibeam vendor format
0695_20130523_101707_melville.all.mb58.gz 26.40MB Kongsberg multibeam vendor format
0696_20130523_104720_melville.all.mb58.gz 26.46MB Kongsberg multibeam vendor format
0697_20130523_111716_melville.all.mb58.gz 26.30MB Kongsberg multibeam vendor format
0698_20130523_114712_melville.all.mb58.gz 25.90MB Kongsberg multibeam vendor format
0699_20130523_121706_melville.all.mb58.gz 26.01MB Kongsberg multibeam vendor format
0700_20130523_124712_melville.all.mb58.gz 25.87MB Kongsberg multibeam vendor format
0701_20130523_131714_melville.all.mb58.gz 25.25MB Kongsberg multibeam vendor format
0702_20130523_134702_melville.all.mb58.gz 25.43MB Kongsberg multibeam vendor format
0703_20130523_141716_melville.all.mb58.gz 25.45MB Kongsberg multibeam vendor format
0704_20130523_144711_melville.all.mb58.gz 25.40MB Kongsberg multibeam vendor format
0705_20130523_151715_melville.all.mb58.gz 25.48MB Kongsberg multibeam vendor format
0706_20130523_154708_melville.all.mb58.gz 25.73MB Kongsberg multibeam vendor format
0707_20130523_161718_melville.all.mb58.gz 25.77MB Kongsberg multibeam vendor format
0708_20130523_164717_melville.all.mb58.gz 26.20MB Kongsberg multibeam vendor format
0709_20130523_171714_melville.all.mb58.gz 26.39MB Kongsberg multibeam vendor format
0710_20130523_174713_melville.all.mb58.gz 26.69MB Kongsberg multibeam vendor format
0711_20130523_181705_melville.all.mb58.gz 26.84MB Kongsberg multibeam vendor format
0712_20130523_184715_melville.all.mb58.gz 25.97MB Kongsberg multibeam vendor format
0713_20130523_191712_melville.all.mb58.gz 26.01MB Kongsberg multibeam vendor format
0714_20130523_194707_melville.all.mb58.gz 26.54MB Kongsberg multibeam vendor format
0715_20130523_201708_melville.all.mb58.gz 25.89MB Kongsberg multibeam vendor format
0716_20130523_204707_melville.all.mb58.gz 26.05MB Kongsberg multibeam vendor format
0717_20130523_211701_melville.all.mb58.gz 26.36MB Kongsberg multibeam vendor format
0718_20130523_214705_melville.all.mb58.gz 25.55MB Kongsberg multibeam vendor format
0719_20130523_221704_melville.all.mb58.gz 26.07MB Kongsberg multibeam vendor format
0720_20130523_224710_melville.all.mb58.gz 26.09MB Kongsberg multibeam vendor format
0721_20130523_231713_melville.all.mb58.gz 26.31MB Kongsberg multibeam vendor format
0722_20130523_234713_melville.all.mb58.gz 25.71MB Kongsberg multibeam vendor format
0723_20130524_001701_melville.all.mb58.gz 26.51MB Kongsberg multibeam vendor format
0724_20130524_004711_melville.all.mb58.gz 26.45MB Kongsberg multibeam vendor format
0725_20130524_011708_melville.all.mb58.gz 26.61MB Kongsberg multibeam vendor format
0726_20130524_014714_melville.all.mb58.gz 26.10MB Kongsberg multibeam vendor format
0727_20130524_021703_melville.all.mb58.gz 26.10MB Kongsberg multibeam vendor format
0728_20130524_024701_melville.all.mb58.gz 26.32MB Kongsberg multibeam vendor format
0729_20130524_031702_melville.all.mb58.gz 25.99MB Kongsberg multibeam vendor format
0730_20130524_034709_melville.all.mb58.gz 25.43MB Kongsberg multibeam vendor format
0731_20130524_041707_melville.all.mb58.gz 25.52MB Kongsberg multibeam vendor format
0732_20130524_044714_melville.all.mb58.gz 25.30MB Kongsberg multibeam vendor format
0733_20130524_051715_melville.all.mb58.gz 25.81MB Kongsberg multibeam vendor format
0734_20130524_054714_melville.all.mb58.gz 25.24MB Kongsberg multibeam vendor format
0735_20130524_061703_melville.all.mb58.gz 25.33MB Kongsberg multibeam vendor format
0736_20130524_064712_melville.all.mb58.gz 25.85MB Kongsberg multibeam vendor format
0737_20130524_071657_melville.all.mb58.gz 26.69MB Kongsberg multibeam vendor format
0738_20130524_074710_melville.all.mb58.gz 26.27MB Kongsberg multibeam vendor format
0739_20130524_081718_melville.all.mb58.gz 26.32MB Kongsberg multibeam vendor format
0740_20130524_084709_melville.all.mb58.gz 25.61MB Kongsberg multibeam vendor format
0741_20130524_091656_melville.all.mb58.gz 26.14MB Kongsberg multibeam vendor format
0742_20130524_094700_melville.all.mb58.gz 26.62MB Kongsberg multibeam vendor format
0743_20130524_101705_melville.all.mb58.gz 25.73MB Kongsberg multibeam vendor format
0744_20130524_104703_melville.all.mb58.gz 25.07MB Kongsberg multibeam vendor format
0745_20130524_111700_melville.all.mb58.gz 25.17MB Kongsberg multibeam vendor format
0746_20130524_114705_melville.all.mb58.gz 25.19MB Kongsberg multibeam vendor format
0747_20130524_121713_melville.all.mb58.gz 24.90MB Kongsberg multibeam vendor format
0748_20130524_124655_melville.all.mb58.gz 25.56MB Kongsberg multibeam vendor format
0749_20130524_131701_melville.all.mb58.gz 25.14MB Kongsberg multibeam vendor format
0750_20130524_134658_melville.all.mb58.gz 24.97MB Kongsberg multibeam vendor format
0751_20130524_141655_melville.all.mb58.gz 25.79MB Kongsberg multibeam vendor format
0752_20130524_144710_melville.all.mb58.gz 26.36MB Kongsberg multibeam vendor format
0753_20130524_151703_melville.all.mb58.gz 26.44MB Kongsberg multibeam vendor format
0754_20130524_154658_melville.all.mb58.gz 26.68MB Kongsberg multibeam vendor format
0755_20130524_161705_melville.all.mb58.gz 26.22MB Kongsberg multibeam vendor format
0756_20130524_164659_melville.all.mb58.gz 26.55MB Kongsberg multibeam vendor format
0757_20130524_171700_melville.all.mb58.gz 26.60MB Kongsberg multibeam vendor format
0758_20130524_174703_melville.all.mb58.gz 26.07MB Kongsberg multibeam vendor format
0759_20130524_181707_melville.all.mb58.gz 25.71MB Kongsberg multibeam vendor format
0760_20130524_184654_melville.all.mb58.gz 25.90MB Kongsberg multibeam vendor format
0761_20130524_191705_melville.all.mb58.gz 25.92MB Kongsberg multibeam vendor format
0762_20130524_194709_melville.all.mb58.gz 25.53MB Kongsberg multibeam vendor format
0763_20130524_201701_melville.all.mb58.gz 25.94MB Kongsberg multibeam vendor format
0764_20130524_204707_melville.all.mb58.gz 25.83MB Kongsberg multibeam vendor format
0765_20130524_211702_melville.all.mb58.gz 25.52MB Kongsberg multibeam vendor format
0766_20130524_214654_melville.all.mb58.gz 26.29MB Kongsberg multibeam vendor format
0767_20130524_221653_melville.all.mb58.gz 26.31MB Kongsberg multibeam vendor format
0768_20130524_224652_melville.all.mb58.gz 26.68MB Kongsberg multibeam vendor format
0769_20130524_231703_melville.all.mb58.gz 26.46MB Kongsberg multibeam vendor format
0770_20130524_234703_melville.all.mb58.gz 26.07MB Kongsberg multibeam vendor format
0771_20130525_001705_melville.all.mb58.gz 26.34MB Kongsberg multibeam vendor format
0772_20130525_004659_melville.all.mb58.gz 26.13MB Kongsberg multibeam vendor format
0773_20130525_011703_melville.all.mb58.gz 25.85MB Kongsberg multibeam vendor format
0774_20130525_014656_melville.all.mb58.gz 25.49MB Kongsberg multibeam vendor format
0775_20130525_021707_melville.all.mb58.gz 25.64MB Kongsberg multibeam vendor format
0776_20130525_024654_melville.all.mb58.gz 25.58MB Kongsberg multibeam vendor format
0777_20130525_031656_melville.all.mb58.gz 25.70MB Kongsberg multibeam vendor format
0778_20130525_034651_melville.all.mb58.gz 25.98MB Kongsberg multibeam vendor format
0779_20130525_041710_melville.all.mb58.gz 25.59MB Kongsberg multibeam vendor format
0780_20130525_044701_melville.all.mb58.gz 25.53MB Kongsberg multibeam vendor format
0781_20130525_051702_melville.all.mb58.gz 25.80MB Kongsberg multibeam vendor format
0782_20130525_054700_melville.all.mb58.gz 26.44MB Kongsberg multibeam vendor format
0783_20130525_061702_melville.all.mb58.gz 26.42MB Kongsberg multibeam vendor format
0784_20130525_064657_melville.all.mb58.gz 26.74MB Kongsberg multibeam vendor format
0785_20130525_071659_melville.all.mb58.gz 26.45MB Kongsberg multibeam vendor format
0786_20130525_074700_melville.all.mb58.gz 26.64MB Kongsberg multibeam vendor format
0787_20130525_081704_melville.all.mb58.gz 26.36MB Kongsberg multibeam vendor format
0788_20130525_084656_melville.all.mb58.gz 25.76MB Kongsberg multibeam vendor format
0789_20130525_091656_melville.all.mb58.gz 25.34MB Kongsberg multibeam vendor format
0790_20130525_094651_melville.all.mb58.gz 25.66MB Kongsberg multibeam vendor format
0791_20130525_101710_melville.all.mb58.gz 25.07MB Kongsberg multibeam vendor format
0792_20130525_104654_melville.all.mb58.gz 25.41MB Kongsberg multibeam vendor format
0793_20130525_111655_melville.all.mb58.gz 25.46MB Kongsberg multibeam vendor format
0794_20130525_114655_melville.all.mb58.gz 25.56MB Kongsberg multibeam vendor format
0795_20130525_121658_melville.all.mb58.gz 25.67MB Kongsberg multibeam vendor format
0796_20130525_124658_melville.all.mb58.gz 26.68MB Kongsberg multibeam vendor format
0797_20130525_131658_melville.all.mb58.gz 26.51MB Kongsberg multibeam vendor format
0798_20130525_134702_melville.all.mb58.gz 26.28MB Kongsberg multibeam vendor format
0799_20130525_141701_melville.all.mb58.gz 25.93MB Kongsberg multibeam vendor format
0800_20130525_144653_melville.all.mb58.gz 26.53MB Kongsberg multibeam vendor format
0801_20130525_151655_melville.all.mb58.gz 26.73MB Kongsberg multibeam vendor format
0802_20130525_154703_melville.all.mb58.gz 26.03MB Kongsberg multibeam vendor format
0803_20130525_161653_melville.all.mb58.gz 25.89MB Kongsberg multibeam vendor format
0804_20130525_164659_melville.all.mb58.gz 25.75MB Kongsberg multibeam vendor format
0805_20130525_171655_melville.all.mb58.gz 25.86MB Kongsberg multibeam vendor format
0806_20130525_174653_melville.all.mb58.gz 25.59MB Kongsberg multibeam vendor format
0807_20130525_181650_melville.all.mb58.gz 25.93MB Kongsberg multibeam vendor format
0808_20130525_184651_melville.all.mb58.gz 25.97MB Kongsberg multibeam vendor format
0809_20130525_191706_melville.all.mb58.gz 25.65MB Kongsberg multibeam vendor format
0810_20130525_194659_melville.all.mb58.gz 25.96MB Kongsberg multibeam vendor format
0811_20130525_201700_melville.all.mb58.gz 26.10MB Kongsberg multibeam vendor format
0812_20130525_204647_melville.all.mb58.gz 26.42MB Kongsberg multibeam vendor format
0813_20130525_211700_melville.all.mb58.gz 26.48MB Kongsberg multibeam vendor format
0814_20130525_214701_melville.all.mb58.gz 26.30MB Kongsberg multibeam vendor format
0815_20130525_221656_melville.all.mb58.gz 26.43MB Kongsberg multibeam vendor format
0816_20130525_224700_melville.all.mb58.gz 25.84MB Kongsberg multibeam vendor format
0817_20130525_231646_melville.all.mb58.gz 25.91MB Kongsberg multibeam vendor format
0818_20130525_234705_melville.all.mb58.gz 24.96MB Kongsberg multibeam vendor format
0819_20130526_001652_melville.all.mb58.gz 25.29MB Kongsberg multibeam vendor format
0820_20130526_004653_melville.all.mb58.gz 26.24MB Kongsberg multibeam vendor format
0821_20130526_011744_melville.all.mb58.gz 25.59MB Kongsberg multibeam vendor format
0822_20130526_014803_melville.all.mb58.gz 25.08MB Kongsberg multibeam vendor format
0823_20130526_021755_melville.all.mb58.gz 25.01MB Kongsberg multibeam vendor format
0824_20130526_024740_melville.all.mb58.gz 25.58MB Kongsberg multibeam vendor format
0825_20130526_031757_melville.all.mb58.gz 25.58MB Kongsberg multibeam vendor format
0826_20130526_034750_melville.all.mb58.gz 26.39MB Kongsberg multibeam vendor format
0827_20130526_041756_melville.all.mb58.gz 26.25MB Kongsberg multibeam vendor format
0828_20130526_044750_melville.all.mb58.gz 26.45MB Kongsberg multibeam vendor format
0829_20130526_051743_melville.all.mb58.gz 26.57MB Kongsberg multibeam vendor format
0830_20130526_054752_melville.all.mb58.gz 26.45MB Kongsberg multibeam vendor format
0831_20130526_061742_melville.all.mb58.gz 26.75MB Kongsberg multibeam vendor format
0832_20130526_064754_melville.all.mb58.gz 25.17MB Kongsberg multibeam vendor format
0833_20130526_071746_melville.all.mb58.gz 25.72MB Kongsberg multibeam vendor format
0834_20130526_074750_melville.all.mb58.gz 24.63MB Kongsberg multibeam vendor format
0835_20130526_081757_melville.all.mb58.gz 25.00MB Kongsberg multibeam vendor format
0836_20130526_084800_melville.all.mb58.gz 25.27MB Kongsberg multibeam vendor format
0837_20130526_091741_melville.all.mb58.gz 24.77MB Kongsberg multibeam vendor format
0838_20130526_094745_melville.all.mb58.gz 24.63MB Kongsberg multibeam vendor format
0839_20130526_101748_melville.all.mb58.gz 25.20MB Kongsberg multibeam vendor format
0840_20130526_104746_melville.all.mb58.gz 26.43MB Kongsberg multibeam vendor format
0841_20130526_111749_melville.all.mb58.gz 26.04MB Kongsberg multibeam vendor format
0842_20130526_114739_melville.all.mb58.gz 26.55MB Kongsberg multibeam vendor format
0843_20130526_121743_melville.all.mb58.gz 25.79MB Kongsberg multibeam vendor format
0844_20130526_124738_melville.all.mb58.gz 26.75MB Kongsberg multibeam vendor format
0845_20130526_131752_melville.all.mb58.gz 26.28MB Kongsberg multibeam vendor format
0846_20130526_134737_melville.all.mb58.gz 26.38MB Kongsberg multibeam vendor format
0847_20130526_141747_melville.all.mb58.gz 25.74MB Kongsberg multibeam vendor format
0848_20130526_144744_melville.all.mb58.gz 25.57MB Kongsberg multibeam vendor format
0849_20130526_151737_melville.all.mb58.gz 25.79MB Kongsberg multibeam vendor format
0850_20130526_154744_melville.all.mb58.gz 25.66MB Kongsberg multibeam vendor format
0851_20130526_161745_melville.all.mb58.gz 25.68MB Kongsberg multibeam vendor format
0852_20130526_164748_melville.all.mb58.gz 25.72MB Kongsberg multibeam vendor format
0853_20130526_171748_melville.all.mb58.gz 25.55MB Kongsberg multibeam vendor format
0854_20130526_174737_melville.all.mb58.gz 26.37MB Kongsberg multibeam vendor format
0855_20130526_181744_melville.all.mb58.gz 26.48MB Kongsberg multibeam vendor format
0856_20130526_184749_melville.all.mb58.gz 26.44MB Kongsberg multibeam vendor format
0857_20130526_191738_melville.all.mb58.gz 26.46MB Kongsberg multibeam vendor format
0858_20130526_194747_melville.all.mb58.gz 26.52MB Kongsberg multibeam vendor format
0859_20130526_201748_melville.all.mb58.gz 26.11MB Kongsberg multibeam vendor format
0860_20130526_204737_melville.all.mb58.gz 26.41MB Kongsberg multibeam vendor format
0861_20130526_211735_melville.all.mb58.gz 25.90MB Kongsberg multibeam vendor format
0862_20130526_214758_melville.all.mb58.gz 25.31MB Kongsberg multibeam vendor format
0863_20130526_221742_melville.all.mb58.gz 25.35MB Kongsberg multibeam vendor format
0864_20130526_224739_melville.all.mb58.gz 25.62MB Kongsberg multibeam vendor format
0865_20130526_231753_melville.all.mb58.gz 25.44MB Kongsberg multibeam vendor format
0866_20130526_234745_melville.all.mb58.gz 25.25MB Kongsberg multibeam vendor format
0867_20130527_001741_melville.all.mb58.gz 26.28MB Kongsberg multibeam vendor format
0868_20130527_004748_melville.all.mb58.gz 26.77MB Kongsberg multibeam vendor format
0869_20130527_011748_melville.all.mb58.gz 26.55MB Kongsberg multibeam vendor format
0870_20130527_014740_melville.all.mb58.gz 26.46MB Kongsberg multibeam vendor format
0871_20130527_021747_melville.all.mb58.gz 25.97MB Kongsberg multibeam vendor format
0872_20130527_024750_melville.all.mb58.gz 26.40MB Kongsberg multibeam vendor format
0873_20130527_031739_melville.all.mb58.gz 26.49MB Kongsberg multibeam vendor format
0874_20130527_034737_melville.all.mb58.gz 26.05MB Kongsberg multibeam vendor format
0875_20130527_041734_melville.all.mb58.gz 25.96MB Kongsberg multibeam vendor format
0876_20130527_044741_melville.all.mb58.gz 25.61MB Kongsberg multibeam vendor format
0877_20130527_051741_melville.all.mb58.gz 25.79MB Kongsberg multibeam vendor format
0878_20130527_054749_melville.all.mb58.gz 25.93MB Kongsberg multibeam vendor format
0879_20130527_061745_melville.all.mb58.gz 25.97MB Kongsberg multibeam vendor format
0880_20130527_064744_melville.all.mb58.gz 25.81MB Kongsberg multibeam vendor format
0881_20130527_071739_melville.all.mb58.gz 26.20MB Kongsberg multibeam vendor format
0882_20130527_074739_melville.all.mb58.gz 26.63MB Kongsberg multibeam vendor format
0883_20130527_081743_melville.all.mb58.gz 18.08MB Kongsberg multibeam vendor format
0884_20130527_084237_melville.all.mb58.gz 26.25MB Kongsberg multibeam vendor format
0885_20130527_091218_melville.all.mb58.gz 26.73MB Kongsberg multibeam vendor format
0886_20130527_094226_melville.all.mb58.gz 26.84MB Kongsberg multibeam vendor format
0887_20130527_101217_melville.all.mb58.gz 26.97MB Kongsberg multibeam vendor format
0888_20130527_104213_melville.all.mb58.gz 26.02MB Kongsberg multibeam vendor format
0889_20130527_111213_melville.all.mb58.gz 25.70MB Kongsberg multibeam vendor format
0890_20130527_114223_melville.all.mb58.gz 25.41MB Kongsberg multibeam vendor format
0891_20130527_121218_melville.all.mb58.gz 25.60MB Kongsberg multibeam vendor format
0892_20130527_124221_melville.all.mb58.gz 25.55MB Kongsberg multibeam vendor format
0893_20130527_131224_melville.all.mb58.gz 25.92MB Kongsberg multibeam vendor format
0894_20130527_134225_melville.all.mb58.gz 25.67MB Kongsberg multibeam vendor format
0895_20130527_141213_melville.all.mb58.gz 26.81MB Kongsberg multibeam vendor format
0896_20130527_144209_melville.all.mb58.gz 26.98MB Kongsberg multibeam vendor format
0897_20130527_151221_melville.all.mb58.gz 26.73MB Kongsberg multibeam vendor format
0898_20130527_154220_melville.all.mb58.gz 26.25MB Kongsberg multibeam vendor format
0899_20130527_161213_melville.all.mb58.gz 26.98MB Kongsberg multibeam vendor format
0900_20130527_164209_melville.all.mb58.gz 27.17MB Kongsberg multibeam vendor format
0901_20130527_171215_melville.all.mb58.gz 27.08MB Kongsberg multibeam vendor format
0902_20130527_174222_melville.all.mb58.gz 25.85MB Kongsberg multibeam vendor format
0903_20130527_181221_melville.all.mb58.gz 25.76MB Kongsberg multibeam vendor format
0904_20130527_184210_melville.all.mb58.gz 26.05MB Kongsberg multibeam vendor format
0905_20130527_191223_melville.all.mb58.gz 25.82MB Kongsberg multibeam vendor format
0906_20130527_194220_melville.all.mb58.gz 25.98MB Kongsberg multibeam vendor format
0907_20130527_201221_melville.all.mb58.gz 26.30MB Kongsberg multibeam vendor format
0908_20130527_204221_melville.all.mb58.gz 25.93MB Kongsberg multibeam vendor format
0909_20130527_211209_melville.all.mb58.gz 26.29MB Kongsberg multibeam vendor format
0910_20130527_214209_melville.all.mb58.gz 26.75MB Kongsberg multibeam vendor format
0911_20130527_221219_melville.all.mb58.gz 26.62MB Kongsberg multibeam vendor format
0912_20130527_224206_melville.all.mb58.gz 26.65MB Kongsberg multibeam vendor format
0913_20130527_231212_melville.all.mb58.gz 26.89MB Kongsberg multibeam vendor format
0914_20130527_234220_melville.all.mb58.gz 26.68MB Kongsberg multibeam vendor format
0915_20130528_001211_melville.all.mb58.gz 27.08MB Kongsberg multibeam vendor format
0916_20130528_004216_melville.all.mb58.gz 26.23MB Kongsberg multibeam vendor format
0917_20130528_011227_melville.all.mb58.gz 25.41MB Kongsberg multibeam vendor format
0918_20130528_014207_melville.all.mb58.gz 25.98MB Kongsberg multibeam vendor format
0919_20130528_021216_melville.all.mb58.gz 25.57MB Kongsberg multibeam vendor format
0920_20130528_024211_melville.all.mb58.gz 25.55MB Kongsberg multibeam vendor format
0921_20130528_031226_melville.all.mb58.gz 25.17MB Kongsberg multibeam vendor format
0922_20130528_034211_melville.all.mb58.gz 25.81MB Kongsberg multibeam vendor format
0923_20130528_041210_melville.all.mb58.gz 27.29MB Kongsberg multibeam vendor format
0924_20130528_044212_melville.all.mb58.gz 26.68MB Kongsberg multibeam vendor format
0925_20130528_051219_melville.all.mb58.gz 26.62MB Kongsberg multibeam vendor format
0926_20130528_054214_melville.all.mb58.gz 26.62MB Kongsberg multibeam vendor format
0927_20130528_061205_melville.all.mb58.gz 27.42MB Kongsberg multibeam vendor format
0928_20130528_064206_melville.all.mb58.gz 26.51MB Kongsberg multibeam vendor format
0929_20130528_071211_melville.all.mb58.gz 27.08MB Kongsberg multibeam vendor format
0930_20130528_074213_melville.all.mb58.gz 26.09MB Kongsberg multibeam vendor format
0931_20130528_081212_melville.all.mb58.gz 25.80MB Kongsberg multibeam vendor format
0932_20130528_084209_melville.all.mb58.gz 26.04MB Kongsberg multibeam vendor format
0933_20130528_091212_melville.all.mb58.gz 25.68MB Kongsberg multibeam vendor format
0934_20130528_094213_melville.all.mb58.gz 25.42MB Kongsberg multibeam vendor format
0935_20130528_101211_melville.all.mb58.gz 25.96MB Kongsberg multibeam vendor format
0936_20130528_104209_melville.all.mb58.gz 25.87MB Kongsberg multibeam vendor format
0937_20130528_111206_melville.all.mb58.gz 26.82MB Kongsberg multibeam vendor format
0938_20130528_114204_melville.all.mb58.gz 26.98MB Kongsberg multibeam vendor format
0939_20130528_121210_melville.all.mb58.gz 26.72MB Kongsberg multibeam vendor format
0940_20130528_124216_melville.all.mb58.gz 26.24MB Kongsberg multibeam vendor format
0941_20130528_131209_melville.all.mb58.gz 25.88MB Kongsberg multibeam vendor format
0942_20130528_134207_melville.all.mb58.gz 25.65MB Kongsberg multibeam vendor format
0943_20130528_141207_melville.all.mb58.gz 25.58MB Kongsberg multibeam vendor format
0944_20130528_144224_melville.all.mb58.gz 25.28MB Kongsberg multibeam vendor format
0945_20130528_151206_melville.all.mb58.gz 25.54MB Kongsberg multibeam vendor format
0946_20130528_154221_melville.all.mb58.gz 25.18MB Kongsberg multibeam vendor format
0947_20130528_161217_melville.all.mb58.gz 25.25MB Kongsberg multibeam vendor format
0948_20130528_164213_melville.all.mb58.gz 25.10MB Kongsberg multibeam vendor format
0949_20130528_171202_melville.all.mb58.gz 25.84MB Kongsberg multibeam vendor format
0950_20130528_174218_melville.all.mb58.gz 26.09MB Kongsberg multibeam vendor format
0951_20130528_181209_melville.all.mb58.gz 26.73MB Kongsberg multibeam vendor format
0952_20130528_184203_melville.all.mb58.gz 26.86MB Kongsberg multibeam vendor format
0953_20130528_191201_melville.all.mb58.gz 26.97MB Kongsberg multibeam vendor format
0954_20130528_194205_melville.all.mb58.gz 26.21MB Kongsberg multibeam vendor format
0955_20130528_201200_melville.all.mb58.gz 25.93MB Kongsberg multibeam vendor format
0956_20130528_204206_melville.all.mb58.gz 25.81MB Kongsberg multibeam vendor format
0957_20130528_211200_melville.all.mb58.gz 26.10MB Kongsberg multibeam vendor format
0958_20130528_214216_melville.all.mb58.gz 25.79MB Kongsberg multibeam vendor format
0959_20130528_221206_melville.all.mb58.gz 26.06MB Kongsberg multibeam vendor format
0960_20130528_224214_melville.all.mb58.gz 25.90MB Kongsberg multibeam vendor format
0961_20130528_231212_melville.all.mb58.gz 26.07MB Kongsberg multibeam vendor format
0962_20130528_234213_melville.all.mb58.gz 26.45MB Kongsberg multibeam vendor format
0963_20130529_001209_melville.all.mb58.gz 26.47MB Kongsberg multibeam vendor format
0964_20130529_004205_melville.all.mb58.gz 27.10MB Kongsberg multibeam vendor format
0965_20130529_011200_melville.all.mb58.gz 27.30MB Kongsberg multibeam vendor format
0966_20130529_014211_melville.all.mb58.gz 26.78MB Kongsberg multibeam vendor format
0967_20130529_021211_melville.all.mb58.gz 26.17MB Kongsberg multibeam vendor format
0968_20130529_024205_melville.all.mb58.gz 26.23MB Kongsberg multibeam vendor format
0969_20130529_031203_melville.all.mb58.gz 26.19MB Kongsberg multibeam vendor format
0970_20130529_034157_melville.all.mb58.gz 26.46MB Kongsberg multibeam vendor format
0971_20130529_041217_melville.all.mb58.gz 25.89MB Kongsberg multibeam vendor format
0972_20130529_044157_melville.all.mb58.gz 26.11MB Kongsberg multibeam vendor format
0973_20130529_051201_melville.all.mb58.gz 26.33MB Kongsberg multibeam vendor format
0974_20130529_054206_melville.all.mb58.gz 26.95MB Kongsberg multibeam vendor format
0975_20130529_061208_melville.all.mb58.gz 26.30MB Kongsberg multibeam vendor format
0976_20130529_064201_melville.all.mb58.gz 26.67MB Kongsberg multibeam vendor format
0977_20130529_071205_melville.all.mb58.gz 26.53MB Kongsberg multibeam vendor format
0978_20130529_074200_melville.all.mb58.gz 27.01MB Kongsberg multibeam vendor format
0979_20130529_081202_melville.all.mb58.gz 26.90MB Kongsberg multibeam vendor format
0980_20130529_084201_melville.all.mb58.gz 26.82MB Kongsberg multibeam vendor format
0981_20130529_091201_melville.all.mb58.gz 26.80MB Kongsberg multibeam vendor format
0982_20130529_094210_melville.all.mb58.gz 26.46MB Kongsberg multibeam vendor format
0983_20130529_101210_melville.all.mb58.gz 26.35MB Kongsberg multibeam vendor format
0984_20130529_104157_melville.all.mb58.gz 26.98MB Kongsberg multibeam vendor format
0985_20130529_111209_melville.all.mb58.gz 26.64MB Kongsberg multibeam vendor format
0986_20130529_114156_melville.all.mb58.gz 27.12MB Kongsberg multibeam vendor format
0987_20130529_121208_melville.all.mb58.gz 26.70MB Kongsberg multibeam vendor format
0988_20130529_124200_melville.all.mb58.gz 26.83MB Kongsberg multibeam vendor format
0989_20130529_131158_melville.all.mb58.gz 27.08MB Kongsberg multibeam vendor format
0990_20130529_134159_melville.all.mb58.gz 26.96MB Kongsberg multibeam vendor format
0991_20130529_141204_melville.all.mb58.gz 26.07MB Kongsberg multibeam vendor format
0992_20130529_144203_melville.all.mb58.gz 25.90MB Kongsberg multibeam vendor format
0993_20130529_151209_melville.all.mb58.gz 25.81MB Kongsberg multibeam vendor format
0994_20130529_154202_melville.all.mb58.gz 26.00MB Kongsberg multibeam vendor format
0995_20130529_161200_melville.all.mb58.gz 26.36MB Kongsberg multibeam vendor format
0996_20130529_164159_melville.all.mb58.gz 26.38MB Kongsberg multibeam vendor format
0997_20130529_171203_melville.all.mb58.gz 26.25MB Kongsberg multibeam vendor format
0998_20130529_174207_melville.all.mb58.gz 27.07MB Kongsberg multibeam vendor format
0999_20130529_181205_melville.all.mb58.gz 26.80MB Kongsberg multibeam vendor format
1000_20130529_184159_melville.all.mb58.gz 26.91MB Kongsberg multibeam vendor format
1001_20130529_191158_melville.all.mb58.gz 26.88MB Kongsberg multibeam vendor format
1002_20130529_194158_melville.all.mb58.gz 26.67MB Kongsberg multibeam vendor format
1003_20130529_201155_melville.all.mb58.gz 26.89MB Kongsberg multibeam vendor format
1004_20130529_204201_melville.all.mb58.gz 26.66MB Kongsberg multibeam vendor format
1005_20130529_211154_melville.all.mb58.gz 27.08MB Kongsberg multibeam vendor format
1006_20130529_214209_melville.all.mb58.gz 26.57MB Kongsberg multibeam vendor format
1007_20130529_221152_melville.all.mb58.gz 27.03MB Kongsberg multibeam vendor format
1008_20130529_224207_melville.all.mb58.gz 26.63MB Kongsberg multibeam vendor format
1009_20130529_231159_melville.all.mb58.gz 26.25MB Kongsberg multibeam vendor format
1010_20130529_234152_melville.all.mb58.gz 26.69MB Kongsberg multibeam vendor format
1011_20130530_001153_melville.all.mb58.gz 26.99MB Kongsberg multibeam vendor format
1012_20130530_004152_melville.all.mb58.gz 27.24MB Kongsberg multibeam vendor format
1013_20130530_011204_melville.all.mb58.gz 27.07MB Kongsberg multibeam vendor format
1014_20130530_014200_melville.all.mb58.gz 27.09MB Kongsberg multibeam vendor format
1015_20130530_021151_melville.all.mb58.gz 27.21MB Kongsberg multibeam vendor format
1016_20130530_024207_melville.all.mb58.gz 26.56MB Kongsberg multibeam vendor format
1017_20130530_031200_melville.all.mb58.gz 26.60MB Kongsberg multibeam vendor format
1018_20130530_034201_melville.all.mb58.gz 26.91MB Kongsberg multibeam vendor format
1019_20130530_041207_melville.all.mb58.gz 26.70MB Kongsberg multibeam vendor format
1020_20130530_044155_melville.all.mb58.gz 26.47MB Kongsberg multibeam vendor format
1021_20130530_051150_melville.all.mb58.gz 26.09MB Kongsberg multibeam vendor format
1022_20130530_054155_melville.all.mb58.gz 27.30MB Kongsberg multibeam vendor format
1023_20130530_061200_melville.all.mb58.gz 27.30MB Kongsberg multibeam vendor format
1024_20130530_064156_melville.all.mb58.gz 27.32MB Kongsberg multibeam vendor format
1025_20130530_071202_melville.all.mb58.gz 26.96MB Kongsberg multibeam vendor format
1026_20130530_074149_melville.all.mb58.gz 26.70MB Kongsberg multibeam vendor format
1027_20130530_081149_melville.all.mb58.gz 27.36MB Kongsberg multibeam vendor format
1028_20130530_084152_melville.all.mb58.gz 27.72MB Kongsberg multibeam vendor format
1029_20130530_091202_melville.all.mb58.gz 26.73MB Kongsberg multibeam vendor format
1030_20130530_094151_melville.all.mb58.gz 26.72MB Kongsberg multibeam vendor format
1031_20130530_101150_melville.all.mb58.gz 27.39MB Kongsberg multibeam vendor format
1032_20130530_104159_melville.all.mb58.gz 26.62MB Kongsberg multibeam vendor format
1033_20130530_111153_melville.all.mb58.gz 26.84MB Kongsberg multibeam vendor format
1034_20130530_114202_melville.all.mb58.gz 26.76MB Kongsberg multibeam vendor format
1035_20130530_121152_melville.all.mb58.gz 27.07MB Kongsberg multibeam vendor format
1036_20130530_124157_melville.all.mb58.gz 27.04MB Kongsberg multibeam vendor format
1037_20130530_131201_melville.all.mb58.gz 27.03MB Kongsberg multibeam vendor format
1038_20130530_134202_melville.all.mb58.gz 26.89MB Kongsberg multibeam vendor format
1039_20130530_141157_melville.all.mb58.gz 27.02MB Kongsberg multibeam vendor format
1040_20130530_144201_melville.all.mb58.gz 27.07MB Kongsberg multibeam vendor format
1041_20130530_151157_melville.all.mb58.gz 27.43MB Kongsberg multibeam vendor format
1042_20130530_154157_melville.all.mb58.gz 26.39MB Kongsberg multibeam vendor format
1043_20130530_161149_melville.all.mb58.gz 26.90MB Kongsberg multibeam vendor format
1044_20130530_164148_melville.all.mb58.gz 26.65MB Kongsberg multibeam vendor format
1045_20130530_171152_melville.all.mb58.gz 26.56MB Kongsberg multibeam vendor format
1046_20130530_174147_melville.all.mb58.gz 26.79MB Kongsberg multibeam vendor format
1047_20130530_181157_melville.all.mb58.gz 26.26MB Kongsberg multibeam vendor format
1048_20130530_184146_melville.all.mb58.gz 27.06MB Kongsberg multibeam vendor format
1049_20130530_191159_melville.all.mb58.gz 27.08MB Kongsberg multibeam vendor format
1050_20130530_194147_melville.all.mb58.gz 27.58MB Kongsberg multibeam vendor format
1051_20130530_201150_melville.all.mb58.gz 27.45MB Kongsberg multibeam vendor format
1052_20130530_204147_melville.all.mb58.gz 27.94MB Kongsberg multibeam vendor format
1053_20130530_211149_melville.all.mb58.gz 27.63MB Kongsberg multibeam vendor format
1054_20130530_214153_melville.all.mb58.gz 27.68MB Kongsberg multibeam vendor format
1055_20130530_221148_melville.all.mb58.gz 27.89MB Kongsberg multibeam vendor format
1056_20130530_224150_melville.all.mb58.gz 27.91MB Kongsberg multibeam vendor format
1057_20130530_231150_melville.all.mb58.gz 28.01MB Kongsberg multibeam vendor format
1058_20130530_234148_melville.all.mb58.gz 28.79MB Kongsberg multibeam vendor format
1059_20130531_001149_melville.all.mb58.gz 30.20MB Kongsberg multibeam vendor format
1060_20130531_004153_melville.all.mb58.gz 27.98MB Kongsberg multibeam vendor format
1061_20130531_011144_melville.all.mb58.gz 38.40MB Kongsberg multibeam vendor format
1062_20130531_014144_melville.all.mb58.gz 35.68MB Kongsberg multibeam vendor format
1063_20130531_021144_melville.all.mb58.gz 35.37MB Kongsberg multibeam vendor format
1064_20130531_024149_melville.all.mb58.gz 34.74MB Kongsberg multibeam vendor format
1065_20130531_031150_melville.all.mb58.gz 35.18MB Kongsberg multibeam vendor format
1066_20130531_034152_melville.all.mb58.gz 35.40MB Kongsberg multibeam vendor format
1067_20130531_041144_melville.all.mb58.gz 37.12MB Kongsberg multibeam vendor format
1068_20130531_044144_melville.all.mb58.gz 41.57MB Kongsberg multibeam vendor format
1069_20130531_051146_melville.all.mb58.gz 42.36MB Kongsberg multibeam vendor format
1070_20130531_054145_melville.all.mb58.gz 42.10MB Kongsberg multibeam vendor format
1071_20130531_061142_melville.all.mb58.gz 41.58MB Kongsberg multibeam vendor format
1072_20130531_064142_melville.all.mb58.gz 38.84MB Kongsberg multibeam vendor format
1073_20130531_071142_melville.all.mb58.gz 39.67MB Kongsberg multibeam vendor format
1074_20130531_074144_melville.all.mb58.gz 40.87MB Kongsberg multibeam vendor format
1075_20130531_081151_melville.all.mb58.gz 40.39MB Kongsberg multibeam vendor format
1076_20130531_084142_melville.all.mb58.gz 39.00MB Kongsberg multibeam vendor format
1077_20130531_091142_melville.all.mb58.gz 40.36MB Kongsberg multibeam vendor format
1078_20130531_094141_melville.all.mb58.gz 42.27MB Kongsberg multibeam vendor format
1079_20130531_101142_melville.all.mb58.gz 43.35MB Kongsberg multibeam vendor format
1080_20130531_104146_melville.all.mb58.gz 41.65MB Kongsberg multibeam vendor format
1081_20130531_111147_melville.all.mb58.gz 42.33MB Kongsberg multibeam vendor format
1082_20130531_114145_melville.all.mb58.gz 42.48MB Kongsberg multibeam vendor format
1083_20130531_121143_melville.all.mb58.gz 42.52MB Kongsberg multibeam vendor format
1084_20130531_124146_melville.all.mb58.gz 42.15MB Kongsberg multibeam vendor format
1085_20130531_131144_melville.all.mb58.gz 42.34MB Kongsberg multibeam vendor format
1086_20130531_134140_melville.all.mb58.gz 44.43MB Kongsberg multibeam vendor format
1087_20130531_141141_melville.all.mb58.gz 41.82MB Kongsberg multibeam vendor format
1088_20130531_144141_melville.all.mb58.gz 46.15MB Kongsberg multibeam vendor format
1089_20130531_151142_melville.all.mb58.gz 46.46MB Kongsberg multibeam vendor format
1090_20130531_154140_melville.all.mb58.gz 46.67MB Kongsberg multibeam vendor format
1091_20130531_161142_melville.all.mb58.gz 46.90MB Kongsberg multibeam vendor format
1092_20130531_164140_melville.all.mb58.gz 53.29MB Kongsberg multibeam vendor format
1093_20130531_171140_melville.all.mb58.gz 79.06MB Kongsberg multibeam vendor format
1094_20130531_174140_melville.all.mb58.gz 58.34MB Kongsberg multibeam vendor format
1095_20130531_181141_melville.all.mb58.gz 46.66MB Kongsberg multibeam vendor format
1096_20130531_184144_melville.all.mb58.gz 46.20MB Kongsberg multibeam vendor format
1097_20130531_191139_melville.all.mb58.gz 43.42MB Kongsberg multibeam vendor format
1098_20130531_194145_melville.all.mb58.gz 44.23MB Kongsberg multibeam vendor format
1099_20130531_201140_melville.all.mb58.gz 53.29MB Kongsberg multibeam vendor format
1100_20130531_204138_melville.all.mb58.gz 53.56MB Kongsberg multibeam vendor format
1101_20130531_211138_melville.all.mb58.gz 48.96MB Kongsberg multibeam vendor format
1102_20130531_214139_melville.all.mb58.gz 47.38MB Kongsberg multibeam vendor format
1103_20130531_221143_melville.all.mb58.gz 48.35MB Kongsberg multibeam vendor format
1104_20130531_224138_melville.all.mb58.gz 45.56MB Kongsberg multibeam vendor format
1105_20130531_231139_melville.all.mb58.gz 49.41MB Kongsberg multibeam vendor format
1106_20130531_234136_melville.all.mb58.gz 51.91MB Kongsberg multibeam vendor format
1107_20130601_001136_melville.all.mb58.gz 48.43MB Kongsberg multibeam vendor format
1108_20130601_004136_melville.all.mb58.gz 42.42MB Kongsberg multibeam vendor format
1109_20130601_011145_melville.all.mb58.gz 38.60MB Kongsberg multibeam vendor format
1110_20130601_014137_melville.all.mb58.gz 39.03MB Kongsberg multibeam vendor format
1111_20130601_021141_melville.all.mb58.gz 39.49MB Kongsberg multibeam vendor format
1112_20130601_024136_melville.all.mb58.gz 39.71MB Kongsberg multibeam vendor format
1113_20130601_031136_melville.all.mb58.gz 37.81MB Kongsberg multibeam vendor format
1114_20130601_034142_melville.all.mb58.gz 39.35MB Kongsberg multibeam vendor format
1115_20130601_041136_melville.all.mb58.gz 47.69MB Kongsberg multibeam vendor format
1116_20130601_044137_melville.all.mb58.gz 72.22MB Kongsberg multibeam vendor format
1117_20130601_051136_melville.all.mb58.gz 56.53MB Kongsberg multibeam vendor format
1118_20130601_054136_melville.all.mb58.gz 55.00MB Kongsberg multibeam vendor format
1119_20130601_061135_melville.all.mb58.gz 54.86MB Kongsberg multibeam vendor format
1120_20130601_064136_melville.all.mb58.gz 62.19MB Kongsberg multibeam vendor format
1121_20130601_071136_melville.all.mb58.gz 51.16MB Kongsberg multibeam vendor format
1122_20130601_074135_melville.all.mb58.gz 49.20MB Kongsberg multibeam vendor format
1123_20130601_081141_melville.all.mb58.gz 45.02MB Kongsberg multibeam vendor format
1124_20130601_084136_melville.all.mb58.gz 44.05MB Kongsberg multibeam vendor format
1125_20130601_091140_melville.all.mb58.gz 43.99MB Kongsberg multibeam vendor format
1126_20130601_094134_melville.all.mb58.gz 61.13MB Kongsberg multibeam vendor format
1127_20130601_101134_melville.all.mb58.gz 77.13MB Kongsberg multibeam vendor format
1128_20130601_104133_melville.all.mb58.gz 77.36MB Kongsberg multibeam vendor format
1129_20130601_111133_melville.all.mb58.gz 76.83MB Kongsberg multibeam vendor format
1130_20130601_114134_melville.all.mb58.gz 79.95MB Kongsberg multibeam vendor format
1131_20130601_121134_melville.all.mb58.gz 123.73MB Kongsberg multibeam vendor format
1132_20130601_124134_melville.all.mb58.gz 160.62MB Kongsberg multibeam vendor format
1133_20130601_131148_melville.all.mb58.gz 20.01MB Kongsberg multibeam vendor format
1134_20130601_134134_melville.all.mb58.gz 7.49MB Kongsberg multibeam vendor format

Metadata Files: 2

Files File Size Description
MV1306_Multibeam.xml NGDC created ISO metadata
em122_bag_info.tar.gz 71.1KB Additional cruise information